CW6902 Weather Reports


Display with metric or nautical units.
time (UTC)temp
F
wind
direction
speed
MPH
gust
MPH
rain 1hr
in
rain 24hr
in
rain mn
in
humidity
%
barometer
mb
20260904203059 93 73 2.0 2.0 0.00 0.26 0.26 62 1012.3
20260904202959 93 73 0.0 1.0 0.00 0.26 0.26 61 1012.4
20260904202857 93 73 0.0 1.0 0.00 0.26 0.26 61 1012.4
20260904202800 93 73 0.0 1.0 0.00 0.26 0.26 62 1012.4
20260904202659 93 73 0.0 1.0 0.00 0.26 0.26 61 1012.4
20260904202559 93 73 0.0 1.0 0.00 0.26 0.26 61 1012.4
20260904202458 93 73 0.0 2.0 0.00 0.26 0.26 61 1012.5
20260904202358 93 73 0.0 2.0 0.00 0.26 0.26 61 1012.5
20260904202259 93 73 0.0 2.0 0.00 0.26 0.26 61 1012.5
20260904202200 93 73 0.0 2.0 0.00 0.26 0.26 61 1012.5
20260904202057 93 73 0.0 2.0 0.00 0.26 0.26 62 1012.5
20260904202004 93 73 0.0 2.0 0.00 0.26 0.26 62 1012.5
20260904201759 93 73 0.0 2.0 0.00 0.26 0.26 61 1012.6
20260904201658 93 73 0.0 2.0 0.00 0.26 0.26 61 1012.6
20260904201558 93 73 0.0 1.0 0.00 0.26 0.26 61 1012.6
20260904201257 93 73 0.0 2.0 0.00 0.26 0.26 62 1012.6
20260904201158 93 73 0.0 2.0 0.00 0.26 0.26 62 1012.6
20260904201059 93 73 0.0 3.0 0.00 0.26 0.26 61 1012.6
20260904201001 93 73 0.0 3.0 0.00 0.26 0.26 61 1012.6
20260904200858 93 73 0.0 3.0 0.00 0.26 0.26 61 1012.6
20260904200758 93 73 0.0 4.0 0.00 0.26 0.26 61 1012.6
20260904200659 93 73 0.0 4.0 0.00 0.26 0.26 61 1012.6
20260904200559 93 73 0.0 4.0 0.00 0.26 0.26 61 1012.6
20260904200457 93 73 1.0 4.0 0.00 0.26 0.26 61 1012.7
20260904200357 93 73 0.0 4.0 0.00 0.26 0.26 61 1012.7
20260904200257 93 73 1.0 4.0 0.00 0.26 0.26 61 1012.6
20260904200200 93 73 0.0 4.0 0.00 0.26 0.26 61 1012.6
20260904200058 93 73 0.0 4.0 0.00 0.26 0.26 61 1012.6
20260904200000 93 73 1.0 4.0 0.00 0.26 0.26 61 1012.6
20260904195858 93 335 0.0 3.0 0.00 0.26 0.26 61 1012.7
20260904195800 93 335 1.0 3.0 0.00 0.26 0.26 61 1012.6
20260904195659 92 335 0.0 3.0 0.00 0.26 0.26 61 1012.7
20260904195557 92 335 1.0 3.0 0.00 0.26 0.26 61 1012.7
20260904195457 92 334 0.0 3.0 0.00 0.26 0.26 61 1012.8
20260904195257 92 335 0.0 2.0 0.00 0.26 0.26 61 1012.8
20260904195057 92 335 0.0 2.0 0.00 0.26 0.26 61 1012.8
20260904194857 92 335 0.0 2.0 0.00 0.26 0.26 61 1012.8
20260904194659 92 335 1.0 2.0 0.00 0.26 0.26 60 1012.8
20260904194602 91 335 1.0 2.0 0.00 0.26 0.26 60 1012.8
20260904194500 91 334 0.0 2.0 0.00 0.26 0.26 60 1012.8
20260904194358 91 334 0.0 2.0 0.00 0.26 0.26 60 1012.8
20260904194259 91 334 0.0 2.0 0.00 0.26 0.26 61 1012.8
20260904194159 91 334 0.0 3.0 0.00 0.26 0.26 60 1012.9
20260904194059 91 334 0.0 3.0 0.00 0.26 0.26 60 1012.9
20260904194000 91 334 0.0 3.0 0.00 0.26 0.26 60 1012.9
20260904193800 91 334 0.0 3.0 0.00 0.26 0.26 59 1012.9
20260904193659 91 334 1.0 3.0 0.00 0.26 0.26 59 1012.9
20260904193557 91 338 0.0 3.0 0.00 0.26 0.26 59 1013.0
20260904193457 91 338 0.0 3.0 0.00 0.26 0.26 59 1012.9
20260904193158 90 48 0.0 2.0 0.00 0.26 0.26 57 1013.1
20260904193058 90 48 0.0 2.0 0.00 0.26 0.26 57 1013.1
20260904193002 90 48 0.0 2.0 0.00 0.26 0.26 56 1013.1
20260904192858 90 48 0.0 2.0 0.00 0.26 0.26 56 1013.2
20260904192657 90 48 0.0 2.0 0.00 0.26 0.26 55 1013.1
20260904192600 89 55 0.0 1.0 0.00 0.26 0.26 53 1013.2
20260904192500 89 55 0.0 1.0 0.00 0.26 0.26 54 1013.2
20260904192357 89 55 0.0 1.0 0.00 0.26 0.26 54 1013.2
20260904192257 89 55 0.0 1.0 0.00 0.26 0.26 55 1013.2
20260904192159 89 55 0.0 2.0 0.00 0.26 0.26 55 1013.2
20260904191959 88 55 0.0 2.0 0.00 0.26 0.26 55 1013.2
20260904191857 88 55 0.0 2.0 0.00 0.26 0.26 53 1013.2
20260904191759 88 55 0.0 2.0 0.00 0.26 0.26 53 1013.2
20260904191659 88 55 0.0 2.0 0.00 0.26 0.26 51 1013.3
20260904191458 87 55 0.0 2.0 0.00 0.26 0.26 50 1013.2
20260904191400 87 55 0.0 2.0 0.00 0.26 0.26 51 1013.2
20260904191259 87 55 1.0 2.0 0.00 0.26 0.26 48 1013.3
20260904191159 87 55 0.0 2.0 0.00 0.26 0.26 47 1013.3
20260904191057 87 55 0.0 2.0 0.00 0.26 0.26 46 1013.3
20260904190959 87 55 0.0 2.0 0.00 0.26 0.26 44 1013.3
20260904190859 87 55 0.0 2.0 0.00 0.26 0.26 43 1013.4
20260904190759 86 55 0.0 2.0 0.00 0.26 0.26 41 1013.4
20260904190657 86 55 0.0 2.0 0.00 0.26 0.26 42 1013.4
20260904190558 86 55 0.0 2.0 0.00 0.26 0.26 42 1013.4
20260904190459 86 55 0.0 2.0 0.00 0.26 0.26 40 1013.5
20260904190400 86 55 0.0 2.0 0.00 0.26 0.26 40 1013.5
20260904190300 85 55 0.0 2.0 0.01 0.26 0.26 31 1013.5
20260904190059 85 55 0.0 1.0 0.01 0.26 0.26 27 1013.5
20260904185958 85 55 0.0 1.0 0.01 0.26 0.26 29 1013.6
20260904185857 85 55 0.0 1.0 0.01 0.26 0.26 22 1013.5
20260904185757 84 55 0.0 1.0 0.01 0.26 0.26 20 1013.6
20260904185600 84 55 0.0 1.0 0.02 0.26 0.26 19 1013.6
20260904185457 84 55 0.0 1.0 0.04 0.26 0.26 17 1013.7
20260904185358 84 55 0.0 1.0 0.04 0.26 0.26 19 1013.7
20260904185259 84 55 0.0 1.0 0.04 0.26 0.26 21 1013.8
20260904185057 83 55 0.0 2.0 0.07 0.26 0.26 21 1013.8
20260904184959 83 55 0.0 2.0 0.08 0.26 0.26 6 1013.8
20260904184859 82 55 0.0 2.0 0.08 0.26 0.26 1 1013.9
20260904184759 82 55 0.0 2.0 0.10 0.26 0.26 100 1013.8
20260904184659 82 55 0.0 2.0 0.10 0.26 0.26 100 1013.9
20260904184558 82 55 0.0 2.0 0.11 0.26 0.26 100 1013.9
20260904184457 81 55 0.0 2.0 0.11 0.26 0.26 100 1013.9
20260904184359 81 55 0.0 2.0 0.11 0.26 0.26 100 1013.9
20260904184001 80 55 0.0 2.0 0.13 0.26 0.26 100 1013.9
20260904183758 80 55 0.0 0.0 0.15 0.26 0.26 100 1014.0
20260904183658 80 55 0.0 1.0 0.15 0.26 0.26 100 1014.0
20260904183559 80 55 0.0 1.0 0.16 0.26 0.26 100 1014.0
20260904183500 79 55 0.0 1.0 0.16 0.26 0.26 100 1014.0
20260904183358 79 55 0.0 1.0 0.16 0.26 0.26 100 1014.0
20260904183257 79 55 0.0 1.0 0.16 0.26 0.26 100 1014.0
20260904183200 79 55 0.0 1.0 0.16 0.26 0.26 100 1014.0
20260904183001 79 55 0.0 1.0 0.17 0.26 0.26 100 1014.1
20260904182857 79 55 0.0 1.0 0.17 0.26 0.26 100 1014.1
20260904182759 79 55 0.0 1.0 0.17 0.26 0.26 100 1014.1
20260904182659 79 55 1.0 1.0 0.17 0.26 0.26 100 1014.2
20260904182558 79 55 0.0 0.0 0.17 0.26 0.26 100 1014.2
20260904182457 79 55 0.0 0.0 0.17 0.26 0.26 100 1014.3
20260904182359 79 55 0.0 0.0 0.17 0.26 0.26 100 1014.3
20260904182300 78 55 0.0 0.0 0.17 0.26 0.26 100 1014.3
20260904182158 78 55 0.0 0.0 0.17 0.26 0.26 100 1014.3
20260904181959 78 55 0.0 1.0 0.17 0.26 0.26 100 1014.3
20260904181859 78 55 0.0 1.0 0.17 0.26 0.26 100 1014.3
20260904181758 77 55 0.0 1.0 0.17 0.26 0.26 100 1014.3
20260904181659 77 55 0.0 1.0 0.17 0.26 0.26 100 1014.3
20260904181600 77 55 0.0 1.0 0.17 0.26 0.26 100 1014.3
20260904181459 77 55 0.0 1.0 0.17 0.26 0.26 100 1014.3
20260904181357 77 55 0.0 1.0 0.17 0.26 0.26 100 1014.3
20260904181257 77 55 0.0 1.0 0.17 0.26 0.26 100 1014.4
20260904181059 77 55 0.0 1.0 0.17 0.26 0.26 100 1014.5
20260904181001 77 55 0.0 1.0 0.17 0.26 0.26 100 1014.5
20260904180857 76 55 0.0 1.0 0.17 0.26 0.26 100 1014.5
20260904180759 76 55 0.0 1.0 0.17 0.26 0.26 100 1014.5
20260904180457 76 55 0.0 1.0 0.17 0.26 0.26 100 1014.6
20260904180400 76 55 0.0 1.0 0.17 0.26 0.26 100 1014.6
20260904180157 76 55 0.0 2.0 0.17 0.25 0.25 100 1014.7
20260904180058 76 55 0.0 2.0 0.18 0.25 0.25 100 1014.7
20260904180000 76 55 0.0 2.0 0.18 0.25 0.25 100 1014.8
20260904175858 77 55 0.0 2.0 0.20 0.25 0.25 100 1014.8
20260904175802 77 55 0.0 2.0 0.20 0.25 0.25 100 1014.8
20260904175701 77 55 0.0 2.0 0.19 0.24 0.24 100 1014.9
20260904175558 77 55 0.0 2.0 0.18 0.23 0.23 100 1015.0
20260904175459 77 55 0.0 2.0 0.17 0.22 0.22 100 1015.0
20260904175258 77 55 1.0 2.0 0.16 0.21 0.21 100 1015.1
20260904175158 77 55 0.0 2.0 0.16 0.20 0.20 100 1015.0
20260904175058 77 55 2.0 2.0 0.15 0.19 0.19 100 1014.9
20260904174759 77 55 1.0 2.0 0.12 0.16 0.16 100 1014.9
20260904174700 78 55 0.0 2.0 0.12 0.15 0.15 100 1014.9
20260904174601 78 55 0.0 2.0 0.12 0.15 0.15 100 1014.9
20260904174500 78 55 1.0 3.0 0.12 0.15 0.15 100 1014.9
20260904174259 78 55 0.0 3.0 0.11 0.14 0.14 100 1015.0
20260904174201 78 55 0.0 3.0 0.11 0.14 0.14 100 1015.0
20260904174000 79 54 0.0 3.0 0.10 0.13 0.13 100 1015.0
20260904173859 79 54 1.0 3.0 0.09 0.12 0.12 100 1015.0
20260904173759 79 54 1.0 3.0 0.08 0.11 0.11 100 1014.9
20260904173658 79 53 1.0 2.0 0.07 0.10 0.10 100 1014.9
20260904173501 79 350 1.0 2.0 0.07 0.10 0.10 100 1014.8
20260904173301 79 340 0.0 1.0 0.07 0.10 0.10 100 1014.9
20260904173159 79 340 0.0 1.0 0.06 0.09 0.09 100 1015.0
20260904173059 79 340 0.0 1.0 0.06 0.09 0.09 100 1015.0
20260904173001 80 340 0.0 1.0 0.06 0.09 0.09 100 1015.0
20260904172858 80 340 0.0 1.0 0.06 0.09 0.09 100 1015.0
20260904172759 80 340 0.0 1.0 0.06 0.09 0.09 100 1014.9
20260904172659 80 340 0.0 1.0 0.06 0.09 0.09 100 1014.9
20260904172559 80 340 0.0 1.0 0.06 0.09 0.09 100 1014.9
20260904172459 80 340 0.0 1.0 0.06 0.09 0.09 100 1014.9
20260904172258 80 340 0.0 0.0 0.06 0.09 0.09 100 1014.8
20260904172158 80 340 0.0 0.0 0.06 0.09 0.09 100 1014.8
20260904172000 80 340 0.0 0.0 0.06 0.09 0.09 100 1014.8
20260904171858 80 340 0.0 0.0 0.06 0.09 0.09 100 1014.7
20260904171759 80 340 0.0 0.0 0.06 0.09 0.09 100 1014.8
20260904171658 80 340 0.0 0.0 0.06 0.09 0.09 100 1014.7
20260904171559 80 340 0.0 0.0 0.06 0.09 0.09 1 1014.8
20260904171459 80 340 0.0 0.0 0.06 0.09 0.09 4 1014.8
20260904171359 80 340 0.0 0.0 0.06 0.09 0.09 6 1014.8
20260904171258 80 340 0.0 0.0 0.06 0.09 0.09 9 1014.8
20260904171159 80 340 0.0 0.0 0.06 0.09 0.09 14 1014.8
20260904171058 81 340 0.0 0.0 0.06 0.09 0.09 14 1014.8
20260904170959 81 340 0.0 0.0 0.06 0.09 0.09 15 1014.8
20260904170858 81 340 0.0 0.0 0.06 0.09 0.09 15 1014.8
20260904170759 81 340 0.0 0.0 0.06 0.09 0.09 14 1014.8
20260904170658 81 340 0.0 0.0 0.06 0.09 0.09 14 1014.7
20260904170600 81 340 0.0 0.0 0.06 0.09 0.09 14 1014.8
20260904170359 81 340 0.0 0.0 0.06 0.09 0.09 13 1014.7
20260904170159 81 340 0.0 0.0 0.05 0.08 0.08 17 1014.8
20260904170058 81 340 0.0 0.0 0.04 0.07 0.07 18 1014.8
20260904170003 81 340 0.0 0.0 0.04 0.07 0.07 22 1014.8
20260904165858 82 340 0.0 0.0 0.02 0.05 0.05 29 1014.9
20260904165800 82 340 0.0 0.0 0.02 0.05 0.05 29 1014.9
20260904165659 82 340 0.0 0.0 0.02 0.05 0.05 30 1014.9
20260904165459 82 340 0.0 3.0 0.02 0.05 0.05 31 1015.0
20260904165257 82 340 0.0 3.0 0.01 0.04 0.04 36 1015.1
20260904165159 82 340 0.0 3.0 0.01 0.04 0.04 40 1015.1
20260904165058 82 340 0.0 3.0 0.01 0.04 0.04 40 1015.0
20260904165001 82 340 0.0 3.0 0.01 0.04 0.04 41 1014.9
20260904164858 82 340 0.0 3.0 0.01 0.04 0.04 42 1014.9
20260904164758 82 340 0.0 3.0 0.00 0.03 0.03 43 1014.8
20260904164659 82 340 0.0 3.0 0.00 0.03 0.03 45 1014.8
20260904164456 82 52 0.0 3.0 0.00 0.03 0.03 47 1014.8
20260904164259 82 52 0.0 3.0 0.00 0.03 0.03 48 1014.8
20260904164159 83 52 1.0 3.0 0.00 0.03 0.03 48 1014.8
20260904164058 83 52 0.0 3.0 0.00 0.03 0.03 49 1014.8
20260904164000 83 52 0.0 3.0 0.00 0.03 0.03 49 1014.7
20260904163859 83 56 0.0 2.0 0.00 0.03 0.03 50 1014.7
20260904163800 83 56 0.0 2.0 0.00 0.03 0.03 50 1014.8
20260904163658 83 56 0.0 2.0 0.00 0.03 0.03 51 1014.8
20260904163359 83 56 0.0 2.0 0.00 0.03 0.03 52 1014.9
20260904163259 83 56 0.0 2.0 0.00 0.03 0.03 52 1014.9
20260904163201 83 56 0.0 2.0 0.00 0.03 0.03 52 1014.9
20260904162959 83 58 1.0 2.0 0.00 0.03 0.03 52 1014.9
20260904162900 83 58 0.0 2.0 0.00 0.03 0.03 52 1014.9
20260904162759 84 58 0.0 1.0 0.00 0.03 0.03 52 1014.9
20260904162659 84 58 0.0 1.0 0.00 0.03 0.03 52 1014.9
20260904162358 84 58 0.0 1.0 0.00 0.03 0.03 52 1014.8
20260904162259 84 58 0.0 1.0 0.00 0.03 0.03 51 1014.8
20260904162157 84 58 0.0 2.0 0.00 0.03 0.03 52 1014.8
20260904162057 84 58 0.0 2.0 0.00 0.03 0.03 51 1014.7
20260904162000 84 58 0.0 2.0 0.00 0.03 0.03 51 1014.7
20260904161857 85 58 0.0 2.0 0.00 0.03 0.03 51 1014.7
20260904161759 85 58 0.0 2.0 0.00 0.03 0.03 51 1014.7
20260904161659 85 58 0.0 2.0 0.00 0.03 0.03 50 1014.7
20260904161600 85 58 0.0 2.0 0.00 0.03 0.03 50 1014.7
20260904161458 85 58 0.0 2.0 0.00 0.03 0.03 49 1014.7
20260904161358 85 58 0.0 2.0 0.00 0.03 0.03 49 1014.6
20260904161259 86 58 1.0 2.0 0.00 0.03 0.03 47 1014.6
20260904161059 86 58 0.0 2.0 0.00 0.03 0.03 42 1014.6
20260904160958 86 63 0.0 2.0 0.00 0.03 0.03 37 1014.7
20260904160859 86 100 0.0 2.0 0.00 0.03 0.03 32 1014.6
20260904160800 86 100 0.0 2.0 0.00 0.03 0.03 31 1014.7
20260904160657 86 100 0.0 2.0 0.00 0.03 0.03 24 1014.6
20260904160557 86 100 0.0 2.0 0.00 0.03 0.03 24 1014.6
20260904160400 86 100 0.0 2.0 0.00 0.03 0.03 24 1014.6
20260904160257 87 100 0.0 2.0 0.00 0.03 0.03 25 1014.6
20260904160158 87 100 0.0 2.0 0.00 0.03 0.03 26 1014.5
20260904160057 87 100 0.0 2.0 0.00 0.03 0.03 26 1014.5
20260904160006 87 100 0.0 2.0 0.00 0.03 0.03 27 1014.5
20260904155859 87 100 0.0 2.0 0.00 0.03 0.03 28 1014.5
20260904155759 87 100 1.0 2.0 0.00 0.03 0.03 28 1014.4
20260904155657 87 100 1.0 2.0 0.00 0.03 0.03 28 1014.4
20260904155600 87 100 2.0 2.0 0.00 0.03 0.03 29 1014.3
20260904155357 87 100 0.0 2.0 0.00 0.03 0.03 29 1014.3
20260904155259 87 100 1.0 2.0 0.00 0.03 0.03 29 1014.2
20260904155201 87 100 0.0 2.0 0.00 0.03 0.03 29 1014.2
20260904154959 87 100 0.0 4.0 0.00 0.03 0.03 28 1014.2
20260904154858 87 100 0.0 4.0 0.00 0.03 0.03 28 1014.2
20260904154800 87 100 0.0 4.0 0.00 0.03 0.03 26 1014.2
20260904154600 87 60 0.0 4.0 0.00 0.03 0.03 25 1014.4
20260904154458 87 60 0.0 4.0 0.00 0.03 0.03 25 1014.4
20260904154359 87 60 0.0 4.0 0.00 0.03 0.03 27 1014.4
20260904154158 87 60 1.0 4.0 0.00 0.03 0.03 22 1014.4
20260904154058 87 64 0.0 2.0 0.00 0.03 0.03 21 1014.4
20260904154001 87 64 0.0 2.0 0.00 0.03 0.03 19 1014.3
20260904153859 87 64 2.0 2.0 0.00 0.03 0.03 18 1014.2
20260904153757 87 64 0.0 2.0 0.00 0.03 0.03 17 1014.2
20260904153600 87 65 2.0 2.0 0.00 0.03 0.03 13 1014.2
20260904153459 87 71 1.0 2.0 0.00 0.03 0.03 9 1014.1
20260904153358 86 71 0.0 2.0 0.00 0.03 0.03 10 1014.0
20260904153257 86 71 0.0 2.0 0.00 0.03 0.03 10 1014.0
20260904153200 86 71 0.0 2.0 0.00 0.03 0.03 8 1013.9
20260904153058 86 71 0.0 2.0 0.00 0.03 0.03 11 1013.9
20260904152857 86 71 0.0 2.0 0.00 0.03 0.03 100 1013.8
20260904152759 85 71 0.0 2.0 0.00 0.03 0.03 100 1013.8
20260904152658 85 71 0.0 2.0 0.00 0.03 0.03 100 1013.7
20260904152558 85 71 1.0 2.0 0.00 0.03 0.03 100 1013.8
20260904152457 85 71 0.0 2.0 0.00 0.03 0.03 100 1013.8
20260904152400 85 71 0.0 2.0 0.00 0.03 0.03 100 1013.7
20260904152259 85 71 0.0 2.0 0.00 0.03 0.03 100 1013.8
20260904152157 85 71 0.0 2.0 0.00 0.03 0.03 2 1013.8
20260904152057 85 71 1.0 2.0 0.00 0.03 0.03 100 1013.8
20260904152001 85 71 0.0 1.0 0.00 0.03 0.03 100 1013.8
20260904151859 85 71 0.0 1.0 0.00 0.03 0.03 100 1013.9
20260904151757 85 71 0.0 2.0 0.00 0.03 0.03 100 1013.8
20260904151657 85 71 0.0 2.0 0.00 0.03 0.03 100 1013.9
20260904151559 85 71 0.0 2.0 0.00 0.03 0.03 100 1013.9
20260904151459 85 71 0.0 2.0 0.00 0.03 0.03 100 1013.9
20260904151400 85 71 0.0 2.0 0.00 0.03 0.03 100 1013.9
20260904151257 84 71 0.0 2.0 0.00 0.03 0.03 100 1013.8
20260904151159 84 71 0.0 2.0 0.00 0.03 0.03 100 1013.9
20260904151059 84 71 0.0 2.0 0.00 0.03 0.03 100 1013.8
20260904150857 84 71 0.0 2.0 0.00 0.03 0.03 100 1013.8
20260904150757 84 71 0.0 2.0 0.00 0.03 0.03 100 1013.8
20260904150659 84 71 0.0 2.0 0.00 0.03 0.03 100 1013.8
20260904150602 84 71 0.0 2.0 0.00 0.03 0.03 100 1013.9
20260904150457 84 71 0.0 1.0 0.00 0.03 0.03 100 1013.8
20260904150357 83 71 0.0 1.0 0.00 0.03 0.03 100 1013.8
20260904150057 83 71 0.0 0.0 0.00 0.03 0.03 100 1013.8
20260904150000 83 71 0.0 1.0 0.00 0.03 0.03 100 1013.8
20260904145859 83 71 0.0 1.0 0.00 0.03 0.03 100 1013.9
20260904145759 83 71 0.0 1.0 0.00 0.03 0.03 100 1013.8
20260904145659 83 71 0.0 1.0 0.00 0.03 0.03 100 1013.8
20260904145557 83 71 0.0 1.0 0.00 0.03 0.03 100 1013.9
20260904145459 83 78 0.0 1.0 0.00 0.03 0.03 100 1013.8
20260904145358 83 78 0.0 1.0 0.00 0.03 0.03 100 1013.8
20260904145158 82 78 0.0 1.0 0.00 0.03 0.03 100 1013.8
20260904145059 82 78 1.0 1.0 0.00 0.03 0.03 100 1013.7
20260904145001 82 78 0.0 0.0 0.00 0.03 0.03 100 1013.7
20260904144857 82 78 0.0 0.0 0.00 0.03 0.03 100 1013.7
20260904144600 82 78 0.0 0.0 0.00 0.03 0.03 100 1013.8
20260904144458 82 78 0.0 0.0 0.00 0.03 0.03 100 1013.8
20260904144357 82 78 0.0 0.0 0.00 0.03 0.03 100 1013.8
20260904144259 82 78 0.0 0.0 0.00 0.03 0.03 100 1013.8
20260904144200 82 78 0.0 0.0 0.00 0.03 0.03 100 1013.8
20260904144057 82 78 0.0 0.0 0.00 0.03 0.03 100 1013.8
20260904143959 82 78 0.0 0.0 0.00 0.03 0.03 100 1013.8
20260904143857 82 78 0.0 0.0 0.00 0.03 0.03 100 1013.8
20260904143659 81 78 0.0 0.0 0.00 0.03 0.03 100 1013.8
20260904143502 81 78 0.0 1.0 0.00 0.03 0.03 100 1013.9
20260904143259 81 78 0.0 1.0 0.00 0.03 0.03 100 1013.9
20260904143200 81 78 0.0 1.0 0.00 0.03 0.03 100 1013.9
20260904143057 81 78 0.0 1.0 0.00 0.03 0.03 100 1013.9
20260904143000 81 78 0.0 1.0 0.00 0.03 0.03 100 1013.9
20260904142859 81 78 0.0 1.0 0.00 0.03 0.03 100 1013.9
20260904142758 81 78 0.0 1.0 0.00 0.03 0.03 100 1013.9
20260904142657 81 78 0.0 1.0 0.00 0.03 0.03 100 1013.9
20260904142559 81 78 0.0 1.0 0.00 0.03 0.03 100 1013.8
20260904142459 81 78 0.0 1.0 0.00 0.03 0.03 100 1013.9
20260904142358 81 78 0.0 1.0 0.00 0.03 0.03 100 1013.8
20260904142259 80 78 0.0 2.0 0.00 0.03 0.03 100 1013.7
20260904142159 80 78 0.0 2.0 0.00 0.03 0.03 100 1013.8
20260904142059 80 78 0.0 2.0 0.00 0.03 0.03 100 1013.8
20260904142000 80 78 0.0 2.0 0.00 0.03 0.03 100 1013.8
20260904141856 80 78 0.0 2.0 0.00 0.03 0.03 100 1013.7
20260904141800 80 78 0.0 2.0 0.00 0.03 0.03 100 1013.7
20260904141659 80 78 0.0 2.0 0.00 0.03 0.03 100 1013.7
20260904141557 80 78 0.0 2.0 0.00 0.03 0.03 100 1013.8
20260904141457 80 78 0.0 2.0 0.00 0.03 0.03 100 1013.7
20260904141158 80 78 0.0 1.0 0.00 0.03 0.03 100 1013.7
20260904141001 80 78 0.0 0.0 0.00 0.03 0.03 100 1013.7
20260904140859 80 78 0.0 1.0 0.00 0.03 0.03 100 1013.7
20260904140757 80 78 0.0 1.0 0.00 0.03 0.03 100 1013.7
20260904140657 80 78 0.0 1.0 0.00 0.03 0.03 100 1013.7
20260904140500 79 78 0.0 1.0 0.00 0.03 0.03 100 1013.6
20260904140257 79 78 0.0 1.0 0.00 0.03 0.03 100 1013.6
20260904140159 79 78 0.0 1.0 0.00 0.03 0.03 100 1013.6
20260904140100 79 78 0.0 1.0 0.00 0.03 0.03 100 1013.6
20260904140008 79 78 0.0 0.0 0.00 0.03 0.03 100 1013.6
20260904135858 79 78 0.0 0.0 0.00 0.04 0.03 100 1013.7
20260904135801 79 78 0.0 0.0 0.00 0.04 0.03 100 1013.7
20260904135600 79 78 0.0 0.0 0.00 0.04 0.03 100 1013.7
20260904135459 79 78 0.0 0.0 0.00 0.04 0.03 100 1013.7
20260904135300 79 78 0.0 0.0 0.00 0.04 0.03 100 1013.7
20260904135200 79 78 0.0 0.0 0.00 0.04 0.03 100 1013.7
20260904135058 79 78 0.0 0.0 0.00 0.04 0.03 100 1013.8
20260904134858 79 78 0.0 1.0 0.00 0.04 0.03 100 1013.7
20260904134801 79 78 0.0 1.0 0.00 0.04 0.03 100 1013.7
20260904134700 79 78 0.0 1.0 0.00 0.04 0.03 100 1013.7
20260904134558 79 78 0.0 1.0 0.00 0.04 0.03 100 1013.6
20260904134459 79 78 0.0 1.0 0.00 0.04 0.03 100 1013.6
20260904134257 79 78 0.0 1.0 0.00 0.04 0.03 100 1013.6
20260904134159 79 78 0.0 1.0 0.00 0.04 0.03 100 1013.6
20260904134100 79 78 0.0 1.0 0.00 0.04 0.03 100 1013.7
20260904133859 79 78 0.0 0.0 0.00 0.04 0.03 100 1013.6
20260904133759 79 78 0.0 0.0 0.00 0.04 0.03 100 1013.7
20260904133658 79 78 0.0 0.0 0.00 0.04 0.03 100 1013.7
20260904133500 79 78 0.0 0.0 0.00 0.04 0.03 100 1013.7
20260904133358 79 78 0.0 0.0 0.00 0.04 0.03 100 1013.7
20260904133200 78 78 0.0 0.0 0.00 0.04 0.03 100 1013.8
20260904133100 78 78 0.0 0.0 0.00 0.04 0.03 100 1013.7
20260904133004 78 78 0.0 0.0 0.00 0.04 0.03 100 1013.7
20260904132657 78 78 0.0 0.0 0.00 0.04 0.03 100 1013.7
20260904132558 78 78 0.0 0.0 0.00 0.04 0.03 100 1013.7
20260904132359 78 78 0.0 0.0 0.00 0.04 0.03 100 1013.6
20260904132300 78 78 0.0 0.0 0.00 0.04 0.03 100 1013.6
20260904132159 78 78 0.0 0.0 0.00 0.04 0.03 100 1013.6
20260904132057 78 78 0.0 0.0 0.00 0.04 0.03 100 1013.6
20260904132000 78 78 0.0 0.0 0.00 0.04 0.03 100 1013.6
20260904131859 78 78 0.0 0.0 0.00 0.04 0.03 100 1013.6
20260904131800 78 78 0.0 0.0 0.00 0.04 0.03 100 1013.6
20260904131658 78 78 0.0 0.0 0.00 0.04 0.03 100 1013.6
20260904131358 78 78 0.0 0.0 0.00 0.04 0.03 100 1013.5
20260904131258 78 78 0.0 0.0 0.00 0.04 0.03 100 1013.5
20260904131158 78 78 0.0 0.0 0.00 0.04 0.03 100 1013.5
20260904131059 77 78 0.0 0.0 0.00 0.04 0.03 100 1013.5
20260904130959 77 78 0.0 0.0 0.00 0.04 0.03 100 1013.6
20260904130759 77 78 0.0 0.0 0.00 0.04 0.03 100 1013.5
20260904130659 77 78 0.0 0.0 0.00 0.04 0.03 100 1013.5
20260904130458 77 78 0.0 0.0 0.00 0.04 0.03 100 1013.5
20260904130259 77 78 0.0 0.0 0.00 0.04 0.03 100 1013.5
20260904130200 77 78 0.0 0.0 0.00 0.04 0.03 100 1013.4
20260904130059 77 78 0.0 0.0 0.00 0.04 0.03 100 1013.4
20260904125900 77 78 0.0 0.0 0.00 0.06 0.03 100 1013.4
20260904125658 77 78 0.0 0.0 0.00 0.06 0.03 100 1013.4
20260904125559 77 78 0.0 0.0 0.00 0.06 0.03 100 1013.3
20260904125500 77 78 0.0 0.0 0.00 0.06 0.03 100 1013.4
20260904125258 77 78 0.0 0.0 0.00 0.06 0.03 100 1013.3
20260904125158 77 78 0.0 0.0 0.00 0.06 0.03 100 1013.3
20260904125059 77 78 0.0 0.0 0.00 0.06 0.03 100 1013.3
20260904125004 77 78 0.0 0.0 0.00 0.06 0.03 100 1013.3
20260904124858 77 78 0.0 0.0 0.00 0.06 0.03 100 1013.2
20260904124758 77 78 0.0 0.0 0.00 0.06 0.03 100 1013.2
20260904124600 77 78 0.0 0.0 0.00 0.06 0.03 100 1013.2
20260904124457 77 78 0.0 0.0 0.00 0.06 0.03 100 1013.1
20260904124359 77 78 0.0 0.0 0.00 0.06 0.03 100 1013.1
20260904124259 77 78 0.0 0.0 0.00 0.06 0.03 100 1013.1
20260904124057 77 78 0.0 0.0 0.00 0.06 0.03 100 1013.0
20260904123858 77 78 0.0 0.0 0.00 0.06 0.03 100 1013.0
20260904123800 77 78 0.0 0.0 0.00 0.06 0.03 100 1013.0
20260904123659 77 78 0.0 0.0 0.00 0.06 0.03 100 1012.9
20260904123558 77 78 0.0 0.0 0.00 0.06 0.03 100 1012.9
20260904123459 77 78 0.0 0.0 0.00 0.06 0.03 100 1012.9
20260904123400 77 78 0.0 0.0 0.00 0.06 0.03 100 1012.8
20260904123257 77 78 0.0 0.0 0.00 0.06 0.03 100 1012.9
20260904123158 77 78 0.0 0.0 0.00 0.06 0.03 100 1012.8
20260904123058 77 78 0.0 0.0 0.00 0.06 0.03 100 1012.8
20260904123001 77 78 0.0 0.0 0.00 0.06 0.03 100 1012.8
20260904122900 77 78 0.0 0.0 0.00 0.06 0.03 100 1012.8
20260904122800 77 78 0.0 0.0 0.00 0.06 0.03 100 1012.8
20260904122659 77 78 0.0 0.0 0.00 0.06 0.03 100 1012.8
20260904122600 77 78 0.0 0.0 0.00 0.06 0.03 100 1012.8
20260904122500 77 78 0.0 0.0 0.00 0.06 0.03 100 1012.8
20260904122400 77 78 0.0 0.0 0.00 0.06 0.03 100 1012.7
20260904122258 77 78 0.0 0.0 0.00 0.06 0.03 100 1012.8
20260904122159 77 78 0.0 0.0 0.00 0.06 0.03 100 1012.8
20260904122059 77 78 0.0 0.0 0.00 0.06 0.03 100 1012.7
20260904122001 77 78 0.0 0.0 0.00 0.06 0.03 100 1012.7
20260904121800 77 78 0.0 0.0 0.00 0.06 0.03 100 1012.7
20260904121658 77 78 0.0 0.0 0.00 0.06 0.03 100 1012.7
20260904121558 77 78 0.0 0.0 0.00 0.06 0.03 100 1012.7
20260904121459 77 78 0.0 0.0 0.00 0.06 0.03 100 1012.7
20260904121359 77 78 0.0 0.0 0.00 0.06 0.03 100 1012.7
20260904121302 77 78 0.0 0.0 0.00 0.06 0.03 100 1012.7
20260904121159 77 78 0.0 0.0 0.00 0.06 0.03 100 1012.7
20260904121059 77 78 0.0 0.0 0.00 0.06 0.03 100 1012.7
20260904121001 77 78 0.0 0.0 0.00 0.06 0.03 100 1012.6
20260904120859 77 78 0.0 0.0 0.00 0.06 0.03 100 1012.7
20260904120800 77 78 0.0 0.0 0.00 0.06 0.03 100 1012.6
20260904120659 77 78 0.0 0.0 0.00 0.06 0.03 100 1012.6
20260904120600 77 78 0.0 0.0 0.00 0.06 0.03 100 1012.6
20260904120458 77 78 0.0 0.0 0.00 0.06 0.03 100 1012.6
20260904120400 77 78 0.0 0.0 0.00 0.06 0.03 100 1012.6
20260904120259 77 78 0.0 0.0 0.00 0.06 0.03 100 1012.6
20260904120059 77 78 0.0 0.0 0.00 0.06 0.03 100 1012.6
20260904120008 77 78 0.0 0.0 0.00 0.06 0.03 100 1012.6
20260904115859 77 78 0.0 0.0 0.00 0.06 0.03 100 1012.5
20260904115758 77 78 0.0 0.0 0.00 0.06 0.03 100 1012.5
20260904115600 77 78 0.0 0.0 0.00 0.06 0.03 100 1012.5
20260904115400 77 78 0.0 0.0 0.00 0.06 0.03 100 1012.5
20260904115258 77 78 0.0 0.0 0.00 0.06 0.03 100 1012.5
20260904115200 77 78 0.0 0.0 0.00 0.06 0.03 100 1012.5
20260904115059 77 78 0.0 0.0 0.00 0.06 0.03 100 1012.4
20260904115001 77 78 0.0 0.0 0.00 0.06 0.03 100 1012.5
20260904114859 77 78 0.0 0.0 0.00 0.06 0.03 100 1012.5
20260904114800 77 78 0.0 0.0 0.00 0.06 0.03 100 1012.4
20260904114659 77 78 0.0 0.0 0.00 0.06 0.03 100 1012.5
20260904114600 77 78 0.0 0.0 0.00 0.06 0.03 100 1012.4
20260904114459 77 78 0.0 0.0 0.00 0.06 0.03 100 1012.5
20260904114400 77 78 0.0 0.0 0.00 0.06 0.03 100 1012.4
20260904114259 77 78 0.0 0.0 0.00 0.06 0.03 100 1012.5
20260904114000 78 78 0.0 0.0 0.00 0.06 0.03 100 1012.5
20260904113859 78 78 0.0 0.0 0.00 0.06 0.03 100 1012.5
20260904113800 78 78 0.0 0.0 0.00 0.06 0.03 100 1012.5
20260904113659 78 78 0.0 0.0 0.00 0.06 0.03 100 1012.6
20260904113600 78 78 0.0 0.0 0.00 0.06 0.03 100 1012.6
20260904113457 78 78 0.0 0.0 0.00 0.06 0.03 100 1012.6
20260904113359 78 78 0.0 0.0 0.00 0.06 0.03 100 1012.6
20260904113258 78 78 0.0 0.0 0.00 0.06 0.03 100 1012.6
20260904113059 78 78 0.0 0.0 0.00 0.06 0.03 100 1012.6
20260904112959 78 78 0.0 0.0 0.00 0.06 0.03 100 1012.6
20260904112858 78 78 0.0 0.0 0.00 0.06 0.03 100 1012.6
20260904112758 78 78 0.0 0.0 0.00 0.06 0.03 100 1012.5
20260904112700 78 78 0.0 0.0 0.00 0.06 0.03 100 1012.6
20260904112600 78 78 0.0 0.0 0.00 0.06 0.03 100 1012.6
20260904112500 78 78 0.0 0.0 0.00 0.06 0.03 100 1012.6
20260904112359 78 78 0.0 0.0 0.00 0.06 0.03 100 1012.6
20260904112257 78 78 0.0 0.0 0.00 0.06 0.03 100 1012.5
20260904112158 78 78 0.0 0.0 0.00 0.06 0.03 100 1012.5
20260904112059 78 78 0.0 0.0 0.00 0.06 0.03 100 1012.5
20260904112001 78 78 0.0 0.0 0.00 0.06 0.03 100 1012.6
20260904111758 78 78 0.0 0.0 0.00 0.06 0.03 100 1012.5
20260904111658 78 78 0.0 0.0 0.00 0.06 0.03 100 1012.5
20260904111600 78 78 0.0 0.0 0.00 0.06 0.03 100 1012.5
20260904111500 78 78 0.0 0.0 0.00 0.06 0.03 100 1012.6
20260904111359 78 78 0.0 0.0 0.00 0.06 0.03 100 1012.6
20260904111057 78 78 0.0 0.0 0.00 0.06 0.03 100 1012.5
20260904111000 78 78 0.0 1.0 0.00 0.06 0.03 100 1012.5
20260904110659 78 78 0.0 1.0 0.00 0.06 0.03 100 1012.5
20260904110558 78 78 0.0 1.0 0.01 0.06 0.03 100 1012.5
20260904110458 78 78 0.0 1.0 0.01 0.06 0.03 100 1012.5
20260904110359 78 78 0.0 1.0 0.01 0.06 0.03 100 1012.5
20260904110257 78 78 0.0 1.0 0.01 0.06 0.03 100 1012.5
20260904110200 78 78 0.0 1.0 0.01 0.06 0.03 100 1012.5
20260904110059 78 78 0.0 0.0 0.01 0.06 0.03 100 1012.5
20260904110006 78 78 0.0 0.0 0.01 0.06 0.03 100 1012.5
20260904105856 78 78 0.0 0.0 0.01 0.08 0.03 100 1012.5
20260904105759 78 78 0.0 0.0 0.01 0.08 0.03 100 1012.5
20260904105559 78 78 0.0 0.0 0.02 0.08 0.03 100 1012.5
20260904105457 78 78 0.0 0.0 0.02 0.08 0.03 100 1012.5
20260904105359 78 78 0.0 0.0 0.02 0.08 0.03 100 1012.5
20260904105159 78 78 0.0 0.0 0.02 0.08 0.03 100 1012.5
20260904104958 78 78 0.0 0.0 0.02 0.08 0.03 100 1012.5
20260904104858 78 78 0.0 0.0 0.02 0.08 0.03 100 1012.5
20260904104759 78 78 0.0 0.0 0.02 0.08 0.03 100 1012.4
20260904104656 78 78 0.0 0.0 0.02 0.08 0.03 100 1012.4
20260904104557 78 78 0.0 0.0 0.02 0.08 0.03 100 1012.4
20260904104400 78 78 0.0 0.0 0.02 0.08 0.03 100 1012.4
20260904104256 78 78 0.0 0.0 0.03 0.08 0.03 100 1012.4
20260904104157 78 78 0.0 0.0 0.03 0.08 0.03 100 1012.4
20260904104059 78 78 0.0 0.0 0.03 0.08 0.03 100 1012.4
20260904104000 78 78 0.0 0.0 0.03 0.08 0.03 100 1012.4
20260904103856 78 78 0.0 0.0 0.03 0.08 0.03 100 1012.4
20260904103757 78 78 0.0 0.0 0.03 0.08 0.03 100 1012.4
20260904103656 78 78 0.0 0.0 0.03 0.08 0.03 100 1012.4
20260904103559 78 78 0.0 0.0 0.03 0.08 0.03 100 1012.3
20260904103459 78 78 0.0 0.0 0.03 0.08 0.03 100 1012.3
20260904103258 78 78 0.0 0.0 0.03 0.08 0.03 100 1012.3
20260904103157 78 78 0.0 0.0 0.03 0.08 0.03 100 1012.3
20260904102958 78 78 0.0 0.0 0.03 0.08 0.03 100 1012.3
20260904102858 78 78 0.0 0.0 0.03 0.08 0.03 100 1012.3
20260904102759 78 78 0.0 0.0 0.03 0.08 0.03 100 1012.2
20260904102657 78 78 0.0 0.0 0.03 0.08 0.03 100 1012.3
20260904102557 78 78 0.0 0.0 0.03 0.08 0.03 100 1012.2
20260904102459 78 78 0.0 0.0 0.03 0.08 0.03 100 1012.2
20260904102359 78 78 0.0 0.0 0.03 0.08 0.03 100 1012.2
20260904102258 78 78 0.0 0.0 0.03 0.08 0.03 100 1012.2
20260904102157 78 78 0.0 0.0 0.03 0.08 0.03 100 1012.2
20260904102056 78 78 0.0 0.0 0.03 0.08 0.03 100 1012.2
20260904102000 78 78 0.0 0.0 0.03 0.08 0.03 100 1012.2
20260904101858 78 78 0.0 0.0 0.03 0.08 0.03 100 1012.1
20260904101757 78 78 0.0 0.0 0.03 0.08 0.03 100 1012.1
20260904101657 78 78 0.0 0.0 0.03 0.08 0.03 100 1012.2
20260904101559 78 78 0.0 0.0 0.03 0.08 0.03 100 1012.1
20260904101457 78 78 0.0 0.0 0.03 0.08 0.03 100 1012.1
20260904101357 78 78 0.0 0.0 0.03 0.08 0.03 100 1012.1
20260904101158 78 78 0.0 0.0 0.03 0.08 0.03 100 1012.1
20260904101059 78 78 0.0 0.0 0.03 0.08 0.03 100 1012.1
20260904100958 78 78 0.0 0.0 0.03 0.08 0.03 100 1012.0
20260904100856 78 78 0.0 0.0 0.03 0.08 0.03 100 1012.0
20260904100759 78 78 0.0 0.0 0.03 0.08 0.03 100 1012.1
20260904100658 78 78 0.0 0.0 0.02 0.07 0.02 100 1012.1
20260904100557 78 78 0.0 0.0 0.02 0.07 0.02 100 1012.1
20260904100457 78 78 0.0 0.0 0.02 0.07 0.02 100 1012.0
20260904100400 78 78 0.0 0.0 0.02 0.07 0.02 100 1012.1
20260904100259 78 78 0.0 0.0 0.02 0.07 0.02 100 1012.1
20260904100157 78 78 0.0 0.0 0.02 0.07 0.02 100 1012.1
20260904100059 78 78 0.0 0.0 0.02 0.07 0.02 100 1012.1
20260904095959 78 78 0.0 0.0 0.02 0.07 0.02 100 1012.1
20260904095859 78 78 0.0 0.0 0.02 0.07 0.02 100 1012.1
20260904095800 78 78 0.0 0.0 0.02 0.07 0.02 100 1012.0
20260904095558 78 78 0.0 0.0 0.01 0.06 0.01 100 1012.0
20260904095459 78 78 0.0 0.0 0.01 0.06 0.01 100 1012.0
20260904095400 78 78 0.0 0.0 0.01 0.06 0.01 100 1012.0
20260904095257 78 78 0.0 0.0 0.01 0.06 0.01 100 1012.0
20260904095059 78 78 0.0 0.0 0.01 0.06 0.01 100 1012.0
20260904095001 78 78 0.0 0.0 0.01 0.06 0.01 100 1012.0
20260904094858 78 78 0.0 0.0 0.01 0.06 0.01 100 1012.0
20260904094758 78 78 0.0 0.0 0.01 0.06 0.01 100 1011.9
20260904094559 78 78 0.0 0.0 0.01 0.06 0.01 100 1011.9
20260904094358 78 78 0.0 0.0 0.00 0.05 0.00 100 1011.9
20260904094259 78 78 0.0 0.0 0.00 0.05 0.00 100 1011.8
20260904094200 78 78 0.0 0.0 0.00 0.05 0.00 100 1011.8
20260904093959 78 78 0.0 0.0 0.00 0.05 0.00 100 1011.8
20260904093759 78 78 0.0 0.0 0.00 0.05 0.00 100 1011.8
20260904093659 78 78 0.0 0.0 0.00 0.05 0.00 100 1011.8
20260904093400 78 78 0.0 0.0 0.00 0.05 0.00 100 1011.8
20260904093300 78 78 0.0 0.0 0.00 0.05 0.00 100 1011.8
20260904093158 78 78 0.0 0.0 0.00 0.05 0.00 100 1011.8
20260904093059 78 78 0.0 0.0 0.00 0.05 0.00 100 1011.8
20260904093005 78 78 0.0 0.0 0.00 0.05 0.00 100 1011.8
20260904092859 78 78 0.0 0.0 0.00 0.05 0.00 100 1011.8
20260904092758 78 78 0.0 0.0 0.00 0.05 0.00 100 1011.8
20260904092659 78 78 0.0 0.0 0.00 0.05 0.00 100 1011.8
20260904092600 78 78 0.0 0.0 0.00 0.05 0.00 100 1011.8
20260904092500 78 78 0.0 0.0 0.00 0.05 0.00 100 1011.8
20260904092358 78 78 0.0 0.0 0.00 0.05 0.00 100 1011.8
20260904092258 78 78 0.0 0.0 0.00 0.05 0.00 100 1011.8
20260904092200 78 78 0.0 0.0 0.00 0.05 0.00 100 1011.8
20260904092057 78 78 0.0 0.0 0.00 0.05 0.00 100 1011.9
20260904091857 78 78 0.0 0.0 0.00 0.05 0.00 100 1011.9
20260904091800 78 78 0.0 0.0 0.00 0.05 0.00 100 1011.9
20260904091659 78 78 0.0 0.0 0.00 0.05 0.00 100 1011.9
20260904091557 78 78 0.0 0.0 0.00 0.05 0.00 100 1011.9
20260904091457 78 78 0.0 0.0 0.00 0.05 0.00 100 1011.9
20260904091400 78 78 0.0 0.0 0.00 0.05 0.00 100 1011.9
20260904091158 78 78 0.0 0.0 0.00 0.05 0.00 100 1011.9
20260904091058 78 78 0.0 0.0 0.00 0.05 0.00 100 1011.9
20260904090859 78 78 0.0 0.0 0.00 0.05 0.00 100 1011.9
20260904090559 78 78 0.0 0.0 0.00 0.05 0.00 100 1011.9
20260904090459 78 78 0.0 0.0 0.00 0.05 0.00 100 1011.9
20260904090358 78 78 0.0 0.0 0.00 0.05 0.00 100 1011.9
20260904090258 78 78 0.0 0.0 0.00 0.05 0.00 100 1011.9
20260904090159 78 78 0.0 0.0 0.00 0.05 0.00 100 1011.9
20260904090059 78 78 0.0 0.0 0.00 0.05 0.00 100 1011.9
20260904085958 78 78 0.0 0.0 0.00 0.05 0.00 100 1011.9
20260904085856 78 78 0.0 0.0 0.00 0.05 0.00 100 1011.9
20260904085759 78 78 0.0 0.0 0.00 0.05 0.00 100 1011.9
20260904085658 78 78 0.0 0.0 0.00 0.05 0.00 100 1012.0
20260904085557 78 78 0.0 0.0 0.00 0.05 0.00 100 1012.0
20260904085457 78 78 0.0 0.0 0.00 0.05 0.00 100 1012.1
20260904085359 79 78 0.0 0.0 0.00 0.05 0.00 100 1012.0
20260904085259 78 78 0.0 0.0 0.00 0.05 0.00 100 1012.0
20260904085157 79 78 0.0 0.0 0.00 0.05 0.00 100 1012.1
20260904085001 79 78 0.0 0.0 0.00 0.05 0.00 100 1012.0
20260904084858 79 78 0.0 0.0 0.00 0.05 0.00 100 1012.1
20260904084757 79 78 0.0 0.0 0.00 0.05 0.00 100 1012.1
20260904084459 79 78 0.0 0.0 0.00 0.05 0.00 100 1012.0
20260904084359 79 78 0.0 0.0 0.00 0.05 0.00 100 1012.0
20260904084256 79 78 0.0 0.0 0.00 0.05 0.00 100 1012.1
20260904084158 79 78 0.0 0.0 0.00 0.05 0.00 100 1012.1
20260904084058 79 78 0.0 0.0 0.00 0.05 0.00 100 1012.0
20260904083958 79 78 0.0 0.0 0.00 0.05 0.00 100 1012.1
20260904083456 79 78 0.0 0.0 0.00 0.05 0.00 100 1012.1
20260904083258 79 78 0.0 0.0 0.00 0.05 0.00 100 1012.1
20260904083158 79 78 0.0 0.0 0.00 0.05 0.00 100 1012.1
20260904083056 79 78 0.0 0.0 0.00 0.05 0.00 100 1012.1
20260904083000 79 78 0.0 0.0 0.00 0.05 0.00 100 1012.1
20260904082859 79 78 0.0 0.0 0.00 0.05 0.00 100 1012.2
20260904082757 79 78 0.0 0.0 0.00 0.05 0.00 100 1012.1
20260904082658 79 78 0.0 0.0 0.00 0.05 0.00 100 1012.1
20260904082557 79 78 0.0 0.0 0.00 0.05 0.00 100 1012.1
20260904082459 79 78 0.0 0.0 0.00 0.05 0.00 100 1012.1
20260904082359 79 78 0.0 0.0 0.00 0.05 0.00 100 1012.1
20260904082256 79 78 0.0 0.0 0.00 0.05 0.00 100 1012.1
20260904082159 79 78 0.0 0.0 0.00 0.05 0.00 100 1012.1
20260904082058 79 78 0.0 0.0 0.00 0.05 0.00 100 1012.1
20260904081959 79 78 0.0 0.0 0.00 0.05 0.00 100 1012.1
20260904081856 79 78 0.0 0.0 0.00 0.05 0.00 100 1012.1
20260904081757 79 78 0.0 0.0 0.00 0.05 0.00 100 1012.1
20260904081658 79 78 0.0 0.0 0.00 0.05 0.00 100 1012.1
20260904081559 79 78 0.0 0.0 0.00 0.05 0.00 100 1012.2
20260904081456 79 78 0.0 0.0 0.00 0.05 0.00 100 1012.1
20260904081358 79 78 0.0 0.0 0.00 0.05 0.00 100 1012.1
20260904081258 79 78 0.0 0.0 0.00 0.05 0.00 100 1012.1
20260904081159 79 78 0.0 0.0 0.00 0.05 0.00 100 1012.1
20260904081056 79 78 0.0 0.0 0.00 0.05 0.00 100 1012.1
20260904080958 79 78 0.0 0.0 0.00 0.05 0.00 100 1012.1
20260904080758 79 78 0.0 0.0 0.00 0.05 0.00 100 1012.0
20260904080657 79 78 0.0 0.0 0.00 0.05 0.00 100 1012.0
20260904080557 79 78 0.0 0.0 0.00 0.05 0.00 100 1012.0
20260904080457 79 78 0.0 0.0 0.00 0.05 0.00 100 1012.0
20260904080400 79 78 0.0 0.0 0.00 0.05 0.00 100 1012.0
20260904080258 79 78 0.0 0.0 0.00 0.05 0.00 100 1012.0
20260904080058 79 78 0.0 0.0 0.00 0.05 0.00 100 1012.0
20260904075857 79 78 0.0 0.0 0.00 0.05 0.00 100 1012.0
20260904075800 79 78 0.0 0.0 0.00 0.05 0.00 100 1012.0
20260904075657 79 78 0.0 0.0 0.00 0.05 0.00 100 1012.1
20260904075559 79 78 0.0 0.0 0.00 0.05 0.00 100 1012.1
20260904075500 79 78 0.0 0.0 0.00 0.05 0.00 100 1012.1
20260904075400 79 78 0.0 0.0 0.00 0.05 0.00 100 1012.1
20260904075257 79 78 0.0 0.0 0.00 0.05 0.00 100 1012.1
20260904075057 79 78 0.0 0.0 0.00 0.05 0.00 100 1012.1
20260904075001 79 78 0.0 0.0 0.00 0.05 0.00 100 1012.1
20260904074858 79 78 0.0 0.0 0.00 0.05 0.00 100 1012.1
20260904074659 79 78 0.0 0.0 0.00 0.05 0.00 100 1012.1
20260904074458 79 78 0.0 0.0 0.00 0.05 0.00 100 1012.0
20260904074359 79 78 0.0 0.0 0.00 0.05 0.00 100 1012.1
20260904074259 79 78 0.0 0.0 0.00 0.05 0.00 100 1012.0
20260904074059 79 78 0.0 0.0 0.00 0.05 0.00 100 1012.1
20260904073959 79 78 0.0 0.0 0.00 0.05 0.00 100 1012.1
20260904073859 79 78 0.0 0.0 0.00 0.05 0.00 100 1012.1
20260904073800 79 78 0.0 0.0 0.00 0.05 0.00 100 1012.1
20260904073659 79 78 0.0 0.0 0.00 0.05 0.00 100 1012.1
20260904073458 79 78 0.0 0.0 0.00 0.05 0.00 100 1012.1
20260904073300 79 78 0.0 0.0 0.00 0.05 0.00 100 1012.1
20260904073200 79 78 0.0 0.0 0.00 0.05 0.00 100 1012.1
20260904073059 79 78 0.0 0.0 0.00 0.05 0.00 100 1012.1
20260904073002 79 78 0.0 0.0 0.00 0.05 0.00 100 1012.1
20260904072858 80 78 0.0 0.0 0.00 0.05 0.00 100 1012.2
20260904072659 80 78 0.0 0.0 0.00 0.05 0.00 100 1012.2
20260904072600 80 78 0.0 0.0 0.00 0.05 0.00 100 1012.2
20260904072459 80 78 0.0 0.0 0.00 0.05 0.00 100 1012.2
20260904072400 80 78 0.0 0.0 0.00 0.05 0.00 100 1012.2
20260904072300 80 78 0.0 0.0 0.00 0.05 0.00 100 1012.1
20260904072159 80 78 0.0 0.0 0.00 0.05 0.00 100 1012.2
20260904072059 80 78 0.0 0.0 0.00 0.05 0.00 100 1012.2
20260904072000 80 78 0.0 0.0 0.00 0.05 0.00 100 1012.2
20260904071859 80 78 0.0 0.0 0.00 0.05 0.00 100 1012.2
20260904071758 80 78 0.0 0.0 0.00 0.05 0.00 100 1012.2
20260904071659 80 78 0.0 0.0 0.00 0.05 0.00 100 1012.2
20260904071600 80 78 0.0 0.0 0.00 0.05 0.00 100 1012.2
20260904071459 80 78 0.0 0.0 0.00 0.05 0.00 100 1012.2
20260904071359 80 78 0.0 0.0 0.00 0.05 0.00 100 1012.2
20260904071259 80 78 0.0 0.0 0.00 0.05 0.00 100 1012.2
20260904071200 80 78 0.0 0.0 0.00 0.05 0.00 100 1012.3
20260904071058 80 78 0.0 0.0 0.00 0.05 0.00 100 1012.3
20260904071000 80 78 0.0 0.0 0.00 0.05 0.00 100 1012.3
20260904070859 80 78 0.0 0.0 0.00 0.05 0.00 100 1012.3
20260904070759 80 78 0.0 0.0 0.00 0.05 0.00 100 1012.3
20260904070657 80 78 0.0 0.0 0.00 0.05 0.00 100 1012.4
20260904070558 80 78 0.0 0.0 0.00 0.05 0.00 100 1012.4
20260904070459 80 78 0.0 0.0 0.00 0.05 0.00 100 1012.4
20260904070259 80 78 0.0 0.0 0.00 0.05 0.00 100 1012.4
20260904070159 80 78 0.0 0.0 0.00 0.05 0.00 100 1012.4
20260904070000 80 78 0.0 0.0 0.00 0.05 0.00 100 1012.4
20260904065758 80 78 0.0 1.0 0.00 0.05 0.00 100 1012.4
20260904065658 80 78 0.0 1.0 0.00 0.05 0.00 100 1012.4
20260904065559 80 78 0.0 1.0 0.00 0.05 0.00 100 1012.4
20260904065457 80 78 0.0 1.0 0.00 0.05 0.00 100 1012.4
20260904065359 80 78 0.0 1.0 0.00 0.05 0.00 100 1012.4
20260904065159 80 78 0.0 1.0 0.00 0.05 0.00 100 1012.4
20260904065058 80 78 0.0 1.0 0.00 0.05 0.00 100 1012.4
20260904065000 80 78 0.0 1.0 0.00 0.05 0.00 100 1012.4
20260904064858 80 78 0.0 0.0 0.00 0.05 0.00 100 1012.4
20260904064759 80 78 0.0 0.0 0.00 0.05 0.00 100 1012.3
20260904064657 80 78 0.0 0.0 0.00 0.05 0.00 100 1012.4
20260904064558 80 78 0.0 0.0 0.00 0.05 0.00 100 1012.4
20260904064458 80 78 0.0 0.0 0.00 0.05 0.00 100 1012.3
20260904064359 80 78 0.0 0.0 0.00 0.05 0.00 100 1012.4
20260904064257 80 78 0.0 0.0 0.00 0.05 0.00 100 1012.4
20260904064158 80 78 0.0 0.0 0.00 0.05 0.00 100 1012.4
20260904064058 80 78 0.0 0.0 0.00 0.05 0.00 100 1012.4
20260904063959 80 78 0.0 0.0 0.00 0.05 0.00 100 1012.4
20260904063858 80 78 0.0 0.0 0.00 0.05 0.00 100 1012.3
20260904063757 81 78 0.0 0.0 0.00 0.05 0.00 100 1012.4
20260904063658 81 78 0.0 0.0 0.00 0.05 0.00 100 1012.4
20260904063559 81 78 0.0 2.0 0.00 0.05 0.00 100 1012.4
20260904063458 81 78 0.0 2.0 0.00 0.05 0.00 100 1012.4
20260904063359 81 78 0.0 2.0 0.00 0.05 0.00 100 1012.4
20260904063159 81 78 0.0 2.0 0.00 0.05 0.00 100 1012.4
20260904063058 81 78 0.0 2.0 0.00 0.05 0.00 100 1012.4
20260904062959 81 78 0.0 2.0 0.00 0.05 0.00 100 1012.4
20260904062858 81 78 0.0 2.0 0.00 0.05 0.00 100 1012.4
20260904062759 81 78 0.0 2.0 0.00 0.05 0.00 100 1012.4
20260904062658 81 78 0.0 0.0 0.00 0.05 0.00 100 1012.4
20260904062559 81 78 0.0 0.0 0.00 0.05 0.00 100 1012.4
20260904062456 81 78 0.0 0.0 0.00 0.05 0.00 100 1012.4
20260904062357 81 78 0.0 0.0 0.00 0.05 0.00 100 1012.4
20260904062158 81 78 0.0 0.0 0.00 0.05 0.00 100 1012.4
20260904062057 81 78 0.0 1.0 0.00 0.05 0.00 100 1012.4
20260904062000 81 78 0.0 1.0 0.00 0.05 0.00 100 1012.4
20260904061758 81 78 0.0 1.0 0.00 0.05 0.00 100 1012.4
20260904061657 81 78 0.0 2.0 0.00 0.05 0.00 100 1012.3
20260904061458 81 78 0.0 2.0 0.00 0.05 0.00 100 1012.3
20260904061359 81 78 0.0 2.0 0.00 0.05 0.00 100 1012.4
20260904061256 81 78 0.0 2.0 0.00 0.05 0.00 100 1012.4
20260904061156 81 78 0.0 2.0 0.00 0.05 0.00 100 1012.4
20260904061056 81 78 0.0 2.0 0.00 0.05 0.00 100 1012.4
20260904061001 81 78 0.0 2.0 0.00 0.05 0.00 100 1012.4
20260904060857 81 78 0.0 2.0 0.00 0.05 0.00 100 1012.4
20260904060758 81 78 0.0 1.0 0.00 0.05 0.00 100 1012.5
20260904060656 81 78 0.0 1.0 0.00 0.05 0.00 100 1012.5
20260904060558 81 78 0.0 1.0 0.00 0.05 0.00 100 1012.5
20260904060458 81 78 0.0 1.0 0.00 0.05 0.00 100 1012.5
20260904060159 81 78 1.0 5.0 0.00 0.05 0.00 100 1012.5
20260904060056 81 78 0.0 5.0 0.00 0.05 0.00 100 1012.5
20260904055858 81 78 0.0 5.0 0.00 0.05 0.00 100 1012.4
20260904055758 81 78 0.0 5.0 0.00 0.05 0.00 100 1012.4
20260904055659 81 78 0.0 5.0 0.00 0.05 0.00 100 1012.5
20260904055558 81 78 0.0 5.0 0.00 0.05 0.00 100 1012.4
20260904055457 81 78 1.0 5.0 0.00 0.05 0.00 100 1012.5
20260904055358 81 78 1.0 2.0 0.00 0.05 0.00 100 1012.4
20260904055259 81 78 0.0 1.0 0.00 0.05 0.00 100 1012.4
20260904055200 81 78 0.0 1.0 0.00 0.05 0.00 100 1012.4
20260904055057 81 78 0.0 1.0 0.00 0.05 0.00 100 1012.4
20260904054959 81 78 0.0 1.0 0.00 0.05 0.00 100 1012.4
20260904054859 81 78 0.0 1.0 0.00 0.05 0.00 100 1012.4
20260904054800 81 78 0.0 1.0 0.00 0.05 0.00 100 1012.5
20260904054657 81 78 0.0 1.0 0.00 0.05 0.00 100 1012.4
20260904054558 81 78 1.0 1.0 0.00 0.05 0.00 100 1012.4
20260904054500 81 78 0.0 2.0 0.00 0.05 0.00 100 1012.4
20260904054400 81 78 0.0 2.0 0.00 0.05 0.00 100 1012.5
20260904054257 81 78 1.0 2.0 0.00 0.05 0.00 100 1012.5
20260904054059 81 78 0.0 2.0 0.00 0.05 0.00 100 1012.5
20260904054000 81 78 0.0 2.0 0.00 0.05 0.00 100 1012.5
20260904053900 81 78 0.0 2.0 0.00 0.05 0.00 100 1012.5
20260904053757 81 78 0.0 2.0 0.00 0.05 0.00 100 1012.5
20260904053659 81 78 1.0 2.0 0.00 0.05 0.00 100 1012.5
20260904053557 81 78 0.0 2.0 0.00 0.05 0.00 100 1012.5
20260904053458 81 78 0.0 1.0 0.00 0.05 0.00 100 1012.6
20260904053358 81 78 0.0 1.0 0.00 0.05 0.00 100 1012.6
20260904053259 81 78 0.0 1.0 0.00 0.05 0.00 100 1012.6
20260904053057 81 78 0.0 1.0 0.00 0.05 0.00 100 1012.5
20260904052959 81 78 0.0 1.0 0.00 0.05 0.00 100 1012.5
20260904052800 81 78 0.0 1.0 0.00 0.05 0.00 100 1012.5
20260904052558 81 78 0.0 1.0 0.00 0.05 0.00 100 1012.5
20260904052457 81 78 0.0 1.0 0.00 0.05 0.00 100 1012.5
20260904052259 81 78 0.0 1.0 0.00 0.05 0.00 100 1012.5
20260904052057 81 78 0.0 1.0 0.00 0.05 0.00 100 1012.5
20260904052001 81 78 0.0 1.0 0.00 0.05 0.00 100 1012.5
20260904051859 81 78 0.0 1.0 0.00 0.05 0.00 100 1012.5
20260904051758 81 78 0.0 1.0 0.00 0.05 0.00 100 1012.5
20260904051659 81 78 0.0 1.0 0.00 0.05 0.00 100 1012.5
20260904051600 81 78 0.0 1.0 0.00 0.05 0.00 100 1012.5
20260904051458 81 78 0.0 1.0 0.00 0.05 0.00 100 1012.5
20260904051357 81 78 0.0 1.0 0.00 0.05 0.00 100 1012.5
20260904051258 81 78 0.0 1.0 0.00 0.05 0.00 100 1012.5
20260904051159 81 78 0.0 1.0 0.00 0.05 0.00 100 1012.5
20260904050959 81 78 0.0 1.0 0.00 0.05 0.00 100 1012.5
20260904050857 81 78 0.0 1.0 0.00 0.05 0.00 100 1012.5
20260904050800 81 78 0.0 1.0 0.00 0.05 0.00 100 1012.5
20260904050659 81 78 0.0 1.0 0.00 0.05 0.00 100 1012.5
20260904050558 81 78 0.0 1.0 0.00 0.05 0.00 100 1012.5
20260904050458 81 78 0.0 1.0 0.00 0.05 0.00 100 1012.5
20260904050359 81 78 0.0 1.0 0.00 0.05 0.00 100 1012.5
20260904050259 81 78 0.0 1.0 0.00 0.05 0.00 100 1012.5
20260904050200 81 78 0.0 1.0 0.00 0.05 0.00 100 1012.5
20260904050057 81 78 0.0 1.0 0.00 0.05 0.00 100 1012.5
20260904050000 81 78 0.0 1.0 0.00 0.05 0.05 100 1012.5
20260904045857 81 78 0.0 1.0 0.00 0.05 0.05 100 1012.5
20260904045802 81 78 0.0 1.0 0.00 0.05 0.05 100 1012.5
20260904045658 81 78 0.0 1.0 0.00 0.05 0.05 100 1012.5
20260904045601 81 78 0.0 1.0 0.00 0.05 0.05 100 1012.5
20260904045500 81 78 0.0 1.0 0.00 0.05 0.05 100 1012.5
20260904045402 81 78 0.0 1.0 0.00 0.05 0.05 100 1012.4
20260904045259 81 78 0.0 1.0 0.00 0.05 0.05 100 1012.5
20260904045100 81 78 0.0 0.0 0.00 0.05 0.05 100 1012.5
20260904045000 81 78 0.0 0.0 0.00 0.05 0.05 100 1012.5
20260904044858 81 78 0.0 1.0 0.00 0.05 0.05 100 1012.5
20260904044759 81 78 0.0 1.0 0.00 0.05 0.05 100 1012.5
20260904044701 81 78 0.0 1.0 0.00 0.05 0.05 100 1012.5
20260904044601 81 78 0.0 1.0 0.00 0.05 0.05 100 1012.5
20260904044459 81 78 0.0 1.0 0.00 0.05 0.05 100 1012.5
20260904044359 81 78 0.0 1.0 0.00 0.05 0.05 100 1012.6
20260904044301 81 78 0.0 1.0 0.00 0.05 0.05 100 1012.6
20260904044202 81 78 0.0 1.0 0.00 0.05 0.05 100 1012.5
20260904044000 81 78 1.0 1.0 0.00 0.05 0.05 100 1012.6
20260904043900 81 78 0.0 0.0 0.00 0.05 0.05 1 1012.6
20260904043801 81 78 0.0 0.0 0.00 0.05 0.05 1 1012.5
20260904043701 81 78 0.0 0.0 0.00 0.05 0.05 1 1012.5
20260904043559 81 78 0.0 0.0 0.00 0.05 0.05 1 1012.5
20260904043458 81 78 0.0 0.0 0.00 0.05 0.05 1 1012.6
20260904043401 81 78 0.0 0.0 0.00 0.05 0.05 1 1012.6
20260904043301 81 78 0.0 1.0 0.00 0.05 0.05 1 1012.5
20260904043159 81 78 0.0 2.0 0.00 0.05 0.05 1 1012.5
20260904043058 81 78 0.0 2.0 0.00 0.05 0.05 1 1012.5
20260904043003 81 78 0.0 2.0 0.00 0.05 0.05 1 1012.5
20260904042901 81 78 0.0 2.0 0.00 0.05 0.05 1 1012.5
20260904042759 81 78 0.0 2.0 0.00 0.05 0.05 1 1012.5
20260904042658 81 78 0.0 2.0 0.00 0.05 0.05 1 1012.5
20260904042602 81 78 0.0 2.0 0.00 0.05 0.05 1 1012.5
20260904042502 81 78 0.0 2.0 0.00 0.05 0.05 1 1012.5
20260904042359 81 78 0.0 2.0 0.00 0.05 0.05 1 1012.5
20260904042258 81 78 0.0 1.0 0.00 0.05 0.05 2 1012.5
20260904042202 81 78 0.0 1.0 0.00 0.05 0.05 2 1012.5
20260904042100 81 78 0.0 1.0 0.00 0.05 0.05 2 1012.5
20260904042000 81 78 0.0 1.0 0.00 0.05 0.05 3 1012.5
20260904041858 81 78 0.0 1.0 0.00 0.05 0.05 3 1012.6
20260904041801 81 78 0.0 1.0 0.00 0.05 0.05 2 1012.6
20260904041701 81 78 0.0 1.0 0.00 0.05 0.05 2 1012.6
20260904041600 81 78 0.0 1.0 0.00 0.05 0.05 3 1012.5
20260904041458 82 78 0.0 1.0 0.00 0.05 0.05 3 1012.6
20260904041400 82 78 0.0 1.0 0.00 0.05 0.05 3 1012.6
20260904041258 82 78 0.0 1.0 0.00 0.05 0.05 3 1012.6
20260904041158 82 78 0.0 1.0 0.00 0.05 0.05 3 1012.6
20260904041058 82 78 0.0 1.0 0.00 0.05 0.05 3 1012.6
20260904041002 82 78 0.0 1.0 0.00 0.05 0.05 4 1012.6
20260904040901 82 78 0.0 1.0 0.00 0.05 0.05 4 1012.6
20260904040758 82 78 0.0 1.0 0.00 0.05 0.05 5 1012.6
20260904040658 82 78 0.0 1.0 0.00 0.05 0.05 5 1012.6
20260904040602 82 78 0.0 1.0 0.00 0.05 0.05 5 1012.6
20260904040500 82 78 0.0 1.0 0.00 0.05 0.05 5 1012.5
20260904040258 82 78 0.0 0.0 0.00 0.05 0.05 5 1012.5
20260904040200 82 78 0.0 1.0 0.00 0.05 0.05 6 1012.5
20260904035958 82 78 0.0 1.0 0.00 0.05 0.05 6 1012.5
20260904035857 82 78 0.0 1.0 0.00 0.05 0.05 7 1012.5
20260904035800 82 78 0.0 1.0 0.00 0.05 0.05 7 1012.5
20260904035659 82 78 0.0 1.0 0.00 0.05 0.05 7 1012.5
20260904035558 82 78 0.0 1.0 0.00 0.05 0.05 7 1012.5
20260904035500 82 78 0.0 1.0 0.00 0.05 0.05 8 1012.5
20260904035400 82 78 0.0 1.0 0.00 0.05 0.05 8 1012.5
20260904035259 82 78 0.0 1.0 0.00 0.05 0.05 9 1012.5
20260904035158 82 78 0.0 0.0 0.00 0.05 0.05 9 1012.5
20260904035057 82 78 0.0 0.0 0.00 0.05 0.05 9 1012.5
20260904035001 82 78 0.0 0.0 0.00 0.05 0.05 10 1012.5
20260904034900 82 78 0.0 0.0 0.00 0.05 0.05 9 1012.5
20260904034757 82 78 0.0 0.0 0.00 0.05 0.05 9 1012.5
20260904034657 82 78 0.0 0.0 0.00 0.05 0.05 10 1012.6
20260904034559 82 78 0.0 2.0 0.00 0.05 0.05 10 1012.5
20260904034500 82 78 0.0 2.0 0.00 0.05 0.05 10 1012.5
20260904034358 82 78 0.0 2.0 0.00 0.05 0.05 10 1012.6
20260904034200 82 78 0.0 2.0 0.00 0.05 0.05 10 1012.6
20260904034059 82 78 0.0 2.0 0.00 0.05 0.05 10 1012.6
20260904033958 82 78 0.0 2.0 0.00 0.05 0.05 10 1012.5
20260904033857 82 78 0.0 2.0 0.00 0.05 0.05 10 1012.5
20260904033800 82 78 0.0 2.0 0.00 0.05 0.05 10 1012.5
20260904033659 82 78 1.0 1.0 0.00 0.05 0.05 10 1012.5
20260904033458 82 78 0.0 1.0 0.00 0.05 0.05 11 1012.5
20260904033358 82 78 0.0 1.0 0.00 0.05 0.05 11 1012.5
20260904033256 82 78 0.0 1.0 0.00 0.05 0.05 12 1012.5
20260904033157 82 78 0.0 1.0 0.00 0.05 0.05 11 1012.5
20260904033057 82 78 0.0 1.0 0.00 0.05 0.05 11 1012.5
20260904033001 82 78 0.0 2.0 0.00 0.05 0.05 12 1012.5
20260904032859 82 78 0.0 2.0 0.00 0.05 0.05 12 1012.5
20260904032800 82 78 0.0 2.0 0.00 0.05 0.05 12 1012.5
20260904032657 82 78 0.0 2.0 0.00 0.05 0.05 12 1012.5
20260904032558 82 78 0.0 2.0 0.00 0.05 0.05 12 1012.4
20260904032500 82 78 0.0 2.0 0.00 0.05 0.05 12 1012.5
20260904032257 82 78 0.0 2.0 0.00 0.05 0.05 12 1012.5
20260904032159 82 78 1.0 2.0 0.00 0.05 0.05 12 1012.5
20260904032059 82 78 0.0 1.0 0.00 0.05 0.05 12 1012.5
20260904032001 82 78 0.0 1.0 0.00 0.05 0.05 12 1012.5
20260904031857 82 78 0.0 1.0 0.00 0.05 0.05 12 1012.5
20260904031559 82 78 0.0 1.0 0.00 0.05 0.05 13 1012.5
20260904031458 82 78 0.0 1.0 0.00 0.05 0.05 13 1012.5
20260904031358 82 78 0.0 1.0 0.00 0.05 0.05 13 1012.5
20260904031259 82 78 0.0 1.0 0.00 0.05 0.05 13 1012.5
20260904031200 82 78 0.0 1.0 0.00 0.05 0.05 13 1012.5
20260904031057 82 78 0.0 1.0 0.00 0.05 0.05 13 1012.5
20260904030959 82 78 0.0 2.0 0.00 0.05 0.05 13 1012.6
20260904030859 82 78 0.0 2.0 0.00 0.05 0.05 13 1012.5
20260904030800 82 78 0.0 2.0 0.00 0.05 0.05 13 1012.5
20260904030657 82 78 0.0 2.0 0.00 0.05 0.05 13 1012.5
20260904030557 82 78 0.0 2.0 0.00 0.05 0.05 13 1012.5
20260904030458 82 78 0.0 2.0 0.00 0.05 0.05 13 1012.5
20260904030359 82 78 0.0 2.0 0.00 0.05 0.05 12 1012.5
20260904030259 82 78 0.0 2.0 0.00 0.05 0.05 12 1012.5
20260904030158 82 78 0.0 2.0 0.00 0.05 0.05 12 1012.5
20260904030059 82 78 1.0 2.0 0.00 0.05 0.05 12 1012.5
20260904025858 82 78 0.0 2.0 0.00 0.05 0.05 12 1012.5
20260904025658 82 78 0.0 2.0 0.00 0.05 0.05 13 1012.5
20260904025602 82 78 0.0 2.0 0.00 0.05 0.05 13 1012.5
20260904025500 82 78 0.0 2.0 0.00 0.05 0.05 13 1012.5
20260904025401 82 78 0.0 2.0 0.00 0.05 0.05 13 1012.5
20260904025305 82 78 0.0 2.0 0.00 0.05 0.05 13 1012.5
20260904025159 82 78 0.0 2.0 0.00 0.05 0.05 12 1012.5
20260904025101 82 78 1.0 2.0 0.00 0.05 0.05 13 1012.5
20260904025001 82 78 0.0 2.0 0.00 0.05 0.05 13 1012.4
20260904024900 82 78 0.0 2.0 0.00 0.05 0.05 13 1012.4
20260904024800 82 78 0.0 2.0 0.00 0.05 0.05 13 1012.5
20260904024658 82 78 0.0 2.0 0.00 0.05 0.05 13 1012.5
20260904024558 82 78 0.0 2.0 0.00 0.05 0.05 13 1012.5
20260904024459 82 78 0.0 2.0 0.00 0.05 0.05 13 1012.5
20260904024400 82 78 1.0 2.0 0.00 0.05 0.05 13 1012.5
20260904024258 82 78 1.0 2.0 0.00 0.05 0.05 14 1012.4
20260904024201 82 78 0.0 2.0 0.00 0.05 0.05 14 1012.4
20260904024059 83 78 0.0 2.0 0.00 0.05 0.05 14 1012.3
20260904024000 83 78 1.0 2.0 0.00 0.05 0.05 14 1012.4
20260904023859 83 78 0.0 2.0 0.00 0.05 0.05 14 1012.4
20260904023801 83 78 0.0 2.0 0.00 0.05 0.05 14 1012.4
20260904023559 83 78 0.0 3.0 0.00 0.05 0.05 15 1012.3
20260904023359 83 78 1.0 3.0 0.00 0.05 0.05 15 1012.4
20260904023258 83 78 0.0 3.0 0.00 0.05 0.05 15 1012.3
20260904023159 83 78 1.0 3.0 0.00 0.05 0.05 15 1012.3
20260904023059 83 78 0.0 3.0 0.00 0.05 0.05 15 1012.3
20260904023000 83 78 0.0 3.0 0.00 0.05 0.05 15 1012.3
20260904022858 83 78 0.0 3.0 0.00 0.05 0.05 15 1012.3
20260904022759 83 78 0.0 3.0 0.00 0.05 0.05 15 1012.3
20260904022658 83 78 0.0 3.0 0.00 0.05 0.05 14 1012.2
20260904022600 83 78 0.0 3.0 0.00 0.05 0.05 14 1012.2
20260904022458 83 78 0.0 3.0 0.00 0.05 0.05 15 1012.2
20260904022358 83 78 2.0 3.0 0.00 0.05 0.05 15 1012.3
20260904022258 82 78 0.0 3.0 0.00 0.05 0.05 15 1012.2
20260904022159 83 78 0.0 3.0 0.00 0.05 0.05 15 1012.1
20260904022059 83 78 0.0 2.0 0.00 0.05 0.05 15 1012.1
20260904022001 83 78 1.0 2.0 0.00 0.05 0.05 15 1012.1
20260904021859 83 78 0.0 2.0 0.00 0.05 0.05 15 1012.1
20260904021759 83 78 0.0 2.0 0.00 0.05 0.05 15 1012.1
20260904021559 83 78 0.0 2.0 0.00 0.05 0.05 15 1012.1
20260904021401 83 78 0.0 2.0 0.00 0.05 0.05 15 1012.1
20260904021258 83 78 0.0 2.0 0.00 0.05 0.05 15 1012.1
20260904021159 83 77 0.0 2.0 0.00 0.05 0.05 15 1012.1
20260904021059 83 77 0.0 2.0 0.00 0.05 0.05 16 1012.1
20260904021004 83 77 0.0 2.0 0.00 0.05 0.05 16 1012.1
20260904020859 83 77 0.0 2.0 0.00 0.05 0.05 16 1012.0
20260904020759 83 77 0.0 1.0 0.00 0.05 0.05 16 1012.1
20260904020559 83 77 0.0 1.0 0.00 0.05 0.05 16 1012.0
20260904020359 83 77 0.0 1.0 0.00 0.05 0.05 17 1012.1
20260904020258 83 78 0.0 1.0 0.00 0.05 0.05 17 1012.0
20260904020159 83 77 0.0 1.0 0.00 0.05 0.05 17 1012.0
20260904020059 83 77 0.0 1.0 0.00 0.05 0.05 17 1012.0
20260904015859 83 77 0.0 1.0 0.00 0.05 0.05 17 1012.0
20260904015759 83 77 0.0 1.0 0.00 0.05 0.05 17 1012.0
20260904015659 83 77 0.0 1.0 0.00 0.05 0.05 17 1012.0
20260904015559 83 77 0.0 1.0 0.00 0.05 0.05 18 1012.0
20260904015457 83 77 0.0 1.0 0.00 0.05 0.05 18 1012.0
20260904015400 83 78 1.0 1.0 0.00 0.05 0.05 18 1012.0
20260904015259 83 77 0.0 1.0 0.00 0.05 0.05 18 1012.0
20260904015200 83 77 0.0 1.0 0.00 0.05 0.05 19 1012.0
20260904015059 83 78 0.0 1.0 0.00 0.05 0.05 19 1012.0
20260904014959 83 78 0.0 1.0 0.00 0.05 0.05 19 1012.0
20260904014759 83 77 0.0 1.0 0.00 0.05 0.05 20 1011.9
20260904014559 83 77 0.0 1.0 0.00 0.05 0.05 20 1011.9
20260904014459 83 77 0.0 1.0 0.00 0.05 0.05 20 1011.9
20260904014359 83 77 0.0 1.0 0.00 0.05 0.05 20 1011.8
20260904014259 83 78 0.0 4.0 0.00 0.05 0.05 20 1011.8
20260904014159 83 78 0.0 4.0 0.00 0.05 0.05 20 1011.9
20260904014059 83 78 0.0 4.0 0.00 0.05 0.05 20 1011.9
20260904014001 83 77 1.0 4.0 0.00 0.05 0.05 20 1011.8
20260904013758 83 77 0.0 4.0 0.00 0.05 0.05 20 1011.9
20260904013600 83 78 0.0 4.0 0.00 0.05 0.05 21 1011.8
20260904013459 83 78 1.0 4.0 0.00 0.05 0.05 21 1011.9
20260904013400 83 38 0.0 1.0 0.00 0.05 0.05 21 1011.8
20260904013256 83 38 0.0 1.0 0.00 0.05 0.05 21 1011.9
20260904013159 83 38 0.0 1.0 0.00 0.05 0.05 21 1011.8
20260904013059 83 38 0.0 1.0 0.00 0.05 0.05 21 1011.9
20260904013001 83 38 0.0 1.0 0.00 0.05 0.05 22 1011.9
20260904012858 83 38 0.0 1.0 0.00 0.05 0.05 22 1011.9
20260904012757 83 38 0.0 1.0 0.00 0.05 0.05 22 1011.9
20260904012659 83 38 0.0 1.0 0.00 0.05 0.05 22 1011.8
20260904012558 83 38 0.0 1.0 0.00 0.05 0.05 22 1011.8
20260904012500 83 38 0.0 1.0 0.00 0.05 0.05 23 1011.8
20260904012358 83 38 0.0 1.0 0.00 0.05 0.05 23 1011.7
20260904012259 83 38 0.0 1.0 0.00 0.05 0.05 24 1011.7
20260904012201 83 38 0.0 2.0 0.00 0.05 0.05 23 1011.7
20260904012057 83 38 0.0 2.0 0.00 0.05 0.05 24 1011.8
20260904011958 83 38 0.0 2.0 0.00 0.05 0.05 24 1011.8
20260904011857 83 38 0.0 2.0 0.00 0.05 0.05 24 1011.8
20260904011759 83 38 0.0 2.0 0.00 0.05 0.05 24 1011.8
20260904011659 83 38 1.0 2.0 0.00 0.05 0.05 24 1011.8
20260904011600 83 38 0.0 2.0 0.00 0.05 0.05 25 1011.8
20260904011459 83 38 0.0 2.0 0.00 0.05 0.05 25 1011.8
20260904011359 83 38 0.0 2.0 0.00 0.05 0.05 25 1011.8
20260904011257 83 38 0.0 1.0 0.00 0.05 0.05 25 1011.7
20260904011059 83 38 0.0 2.0 0.00 0.05 0.05 25 1011.7
20260904011001 83 38 0.0 2.0 0.00 0.05 0.05 25 1011.6
20260904010859 83 38 0.0 2.0 0.00 0.05 0.05 26 1011.7
20260904010759 83 38 0.0 2.0 0.00 0.05 0.05 26 1011.7
20260904010600 84 38 0.0 2.0 0.00 0.05 0.05 26 1011.6
20260904010500 84 38 1.0 2.0 0.00 0.05 0.05 26 1011.6
20260904010358 84 38 0.0 2.0 0.00 0.05 0.05 26 1011.6
20260904010257 84 38 0.0 2.0 0.00 0.05 0.05 27 1011.6
20260904010200 84 38 0.0 1.0 0.00 0.05 0.05 26 1011.6
20260904010059 84 38 0.0 1.0 0.00 0.05 0.05 26 1011.6
20260904005859 84 38 0.0 1.0 0.00 0.05 0.05 27 1011.6
20260904005759 84 38 0.0 1.0 0.00 0.05 0.05 27 1011.6
20260904005704 84 38 0.0 1.0 0.00 0.05 0.05 27 1011.6
20260904005557 84 38 0.0 1.0 0.00 0.05 0.05 28 1011.6
20260904005457 84 38 0.0 1.0 0.00 0.05 0.05 27 1011.7
20260904005300 84 38 0.0 1.0 0.00 0.05 0.05 27 1011.6
20260904005158 84 38 0.0 1.0 0.00 0.05 0.05 28 1011.6
20260904005057 84 38 0.0 1.0 0.00 0.05 0.05 28 1011.5
20260904004958 84 38 0.0 1.0 0.00 0.05 0.05 28 1011.5
20260904004859 84 38 0.0 1.0 0.00 0.05 0.05 29 1011.6
20260904004758 84 38 0.0 1.0 0.00 0.05 0.05 29 1011.6
20260904004659 84 38 0.0 3.0 0.00 0.05 0.05 29 1011.5
20260904004600 84 38 0.0 3.0 0.00 0.05 0.05 29 1011.5
20260904004459 84 37 0.0 3.0 0.00 0.05 0.05 30 1011.5
20260904004357 84 38 0.0 3.0 0.00 0.05 0.05 30 1011.5
20260904004257 84 38 1.0 3.0 0.00 0.05 0.05 30 1011.5
20260904004159 84 37 0.0 3.0 0.00 0.05 0.05 30 1011.5
20260904004059 84 37 0.0 3.0 0.00 0.05 0.05 31 1011.5
20260904003959 84 37 0.0 3.0 0.00 0.05 0.05 31 1011.5
20260904003857 84 37 0.0 3.0 0.00 0.05 0.05 31 1011.5
20260904003759 84 35 0.0 3.0 0.00 0.05 0.05 32 1011.5
20260904003458 84 35 0.0 3.0 0.00 0.05 0.05 32 1011.5
20260904003357 84 35 1.0 3.0 0.00 0.05 0.05 32 1011.5
20260904003200 84 35 0.0 3.0 0.00 0.05 0.05 33 1011.5
20260904003057 84 35 0.0 3.0 0.00 0.05 0.05 33 1011.5
20260904002959 84 35 0.0 3.0 0.00 0.05 0.05 33 1011.6
20260904002859 84 35 0.0 3.0 0.00 0.05 0.05 34 1011.6
20260904002657 84 35 0.0 3.0 0.00 0.05 0.05 34 1011.5
20260904002600 84 35 0.0 3.0 0.00 0.05 0.05 34 1011.6
20260904002459 84 35 0.0 3.0 0.00 0.05 0.05 35 1011.6
20260904002400 84 35 1.0 1.0 0.00 0.05 0.05 35 1011.5
20260904002257 84 35 0.0 1.0 0.00 0.05 0.05 35 1011.5
20260904002157 84 35 1.0 1.0 0.00 0.05 0.05 36 1011.5
20260904002059 84 35 0.0 1.0 0.00 0.05 0.05 36 1011.5
20260904002000 84 35 0.0 1.0 0.00 0.05 0.05 36 1011.5
20260904001857 84 35 0.0 1.0 0.00 0.05 0.05 37 1011.5
20260904001758 84 35 0.0 1.0 0.00 0.05 0.05 37 1011.5
20260904001659 84 35 0.0 1.0 0.00 0.05 0.05 37 1011.5
20260904001559 84 35 0.0 1.0 0.00 0.05 0.05 38 1011.5
20260904001358 84 35 0.0 1.0 0.00 0.05 0.05 38 1011.6
20260904001259 84 35 1.0 1.0 0.00 0.05 0.05 38 1011.6
20260904001200 84 35 0.0 1.0 0.00 0.05 0.05 38 1011.6
20260904001057 84 35 1.0 1.0 0.00 0.05 0.05 38 1011.5
20260904001001 84 35 0.0 1.0 0.00 0.05 0.05 39 1011.5
20260904000800 84 35 0.0 1.0 0.00 0.05 0.05 39 1011.5
20260904000558 84 35 0.0 1.0 0.00 0.05 0.05 40 1011.5
20260904000459 84 35 0.0 1.0 0.00 0.05 0.05 40 1011.5
20260904000400 84 35 0.0 1.0 0.00 0.05 0.05 40 1011.5
20260904000257 84 35 0.0 1.0 0.00 0.05 0.05 40 1011.6
20260904000158 84 35 0.0 6.0 0.00 0.05 0.05 41 1011.6
20260904000059 84 35 0.0 6.0 0.00 0.05 0.05 41 1011.6
20260904000009 84 35 0.0 6.0 0.00 0.05 0.05 41 1011.6
20260903235857 84 35 0.0 6.0 0.00 0.05 0.05 41 1011.6
20260903235659 84 35 0.0 6.0 0.00 0.05 0.05 42 1011.6
20260903235559 84 35 0.0 6.0 0.00 0.05 0.05 42 1011.6
20260903235459 84 35 0.0 6.0 0.00 0.05 0.05 42 1011.6
20260903235358 84 35 0.0 6.0 0.00 0.05 0.05 42 1011.6
20260903235257 84 40 0.0 2.0 0.00 0.05 0.05 42 1011.5
20260903235059 84 40 0.0 2.0 0.00 0.05 0.05 42 1011.6
20260903234959 84 40 1.0 1.0 0.00 0.05 0.05 42 1011.5
20260903234857 84 40 0.0 1.0 0.00 0.05 0.05 43 1011.5
20260903234659 84 40 0.0 1.0 0.00 0.05 0.05 43 1011.5
20260903234557 84 40 0.0 1.0 0.00 0.05 0.05 43 1011.6
20260903234457 84 40 1.0 1.0 0.00 0.05 0.05 43 1011.6
20260903234359 84 40 0.0 1.0 0.00 0.05 0.05 43 1011.6
20260903234259 84 40 0.0 1.0 0.00 0.05 0.05 43 1011.5
20260903234158 84 40 1.0 1.0 0.00 0.05 0.05 44 1011.6
20260903234057 84 40 0.0 1.0 0.00 0.05 0.05 44 1011.5
20260903234001 84 40 0.0 1.0 0.00 0.05 0.05 44 1011.6
20260903233900 84 40 0.0 1.0 0.00 0.05 0.05 44 1011.5
20260903233758 84 40 0.0 1.0 0.00 0.05 0.05 44 1011.6
20260903233657 84 40 0.0 1.0 0.00 0.05 0.05 44 1011.6
20260903233557 84 40 1.0 1.0 0.00 0.05 0.05 44 1011.6
20260903233357 84 40 0.0 0.0 0.00 0.05 0.05 45 1011.6
20260903233259 84 40 0.0 0.0 0.00 0.05 0.05 45 1011.6
20260903233200 84 40 0.0 0.0 0.00 0.05 0.05 45 1011.6
20260903232959 84 40 0.0 1.0 0.00 0.05 0.05 45 1011.5
20260903232759 84 40 0.0 1.0 0.00 0.05 0.05 45 1011.5
20260903232659 84 40 0.0 1.0 0.00 0.05 0.05 46 1011.5
20260903232458 84 40 0.0 1.0 0.00 0.05 0.05 46 1011.5
20260903232358 84 40 0.0 1.0 0.00 0.05 0.05 46 1011.5
20260903232259 84 40 0.0 1.0 0.00 0.05 0.05 45 1011.5
20260903232200 84 40 0.0 1.0 0.00 0.05 0.05 45 1011.6
20260903232057 84 40 0.0 1.0 0.00 0.05 0.05 45 1011.6
20260903231958 84 40 0.0 1.0 0.00 0.05 0.05 45 1011.5
20260903231859 84 40 0.0 1.0 0.00 0.05 0.05 44 1011.6
20260903231800 84 40 0.0 1.0 0.00 0.05 0.05 44 1011.5
20260903231657 84 40 0.0 1.0 0.00 0.05 0.05 44 1011.5
20260903231600 84 40 0.0 1.0 0.00 0.05 0.05 44 1011.6
20260903231459 84 40 0.0 0.0 0.00 0.05 0.05 45 1011.6
20260903231400 84 40 0.0 0.0 0.00 0.05 0.05 45 1011.6
20260903231059 84 40 0.0 1.0 0.00 0.05 0.05 46 1011.6
20260903231001 84 40 0.0 1.0 0.00 0.05 0.05 46 1011.6
20260903230857 84 40 0.0 1.0 0.00 0.05 0.05 46 1011.5
20260903230659 83 40 0.0 1.0 0.00 0.05 0.05 46 1011.5
20260903230457 83 40 0.0 1.0 0.00 0.05 0.05 47 1011.5
20260903230357 83 40 0.0 1.0 0.00 0.05 0.05 47 1011.5
20260903230200 83 40 0.0 1.0 0.00 0.05 0.05 47 1011.5
20260903230057 83 40 0.0 1.0 0.00 0.05 0.05 48 1011.5
20260903225959 83 40 0.0 1.0 0.00 0.05 0.05 48 1011.5
20260903225759 83 40 0.0 1.0 0.00 0.05 0.05 48 1011.5
20260903225657 83 40 0.0 0.0 0.00 0.05 0.05 48 1011.5
20260903225559 83 40 0.0 0.0 0.00 0.05 0.05 48 1011.6
20260903225459 83 40 0.0 0.0 0.00 0.05 0.05 48 1011.6
20260903225359 83 40 0.0 0.0 0.00 0.05 0.05 48 1011.6
20260903225257 83 40 0.0 0.0 0.00 0.05 0.05 49 1011.6
20260903225158 83 40 0.0 0.0 0.00 0.05 0.05 49 1011.6
20260903225059 83 40 0.0 0.0 0.00 0.05 0.05 49 1011.6
20260903225001 83 40 0.0 0.0 0.00 0.05 0.05 49 1011.6
20260903224857 83 40 0.0 0.0 0.00 0.05 0.05 49 1011.5
20260903224758 83 40 0.0 0.0 0.00 0.05 0.05 50 1011.5
20260903224659 83 40 0.0 1.0 0.00 0.05 0.05 50 1011.6
20260903224600 83 40 0.0 1.0 0.00 0.05 0.05 50 1011.6
20260903224458 83 40 0.0 1.0 0.00 0.05 0.05 50 1011.6
20260903224357 83 40 0.0 4.0 0.00 0.05 0.05 50 1011.6
20260903224257 83 40 0.0 4.0 0.00 0.05 0.05 50 1011.6
20260903224159 83 40 0.0 4.0 0.00 0.05 0.05 49 1011.6
20260903224056 83 40 0.0 4.0 0.00 0.05 0.05 49 1011.6
20260903223900 83 40 0.0 4.0 0.00 0.05 0.05 49 1011.6
20260903223800 83 40 0.0 4.0 0.00 0.05 0.05 49 1011.6
20260903223558 83 40 1.0 4.0 0.00 0.05 0.05 47 1011.6
20260903223459 83 31 1.0 1.0 0.00 0.05 0.05 46 1011.6
20260903223259 83 31 0.0 0.0 0.00 0.05 0.05 45 1011.6
20260903223059 83 30 0.0 1.0 0.00 0.05 0.05 45 1011.7
20260903223001 83 30 0.0 1.0 0.00 0.05 0.05 45 1011.7
20260903222800 83 30 0.0 1.0 0.00 0.05 0.05 45 1011.7
20260903222659 83 30 0.0 1.0 0.00 0.05 0.05 45 1011.7
20260903222600 83 30 0.0 1.0 0.00 0.05 0.05 45 1011.8
20260903222459 83 30 0.0 1.0 0.00 0.05 0.05 45 1011.7
20260903222357 83 31 0.0 2.0 0.00 0.05 0.05 45 1011.7
20260903222257 83 30 0.0 3.0 0.00 0.05 0.05 45 1011.7
20260903221959 83 31 0.0 3.0 0.00 0.05 0.05 45 1011.7
20260903221758 83 30 0.0 3.0 0.00 0.05 0.05 46 1011.7
20260903221559 83 30 2.0 3.0 0.00 0.05 0.05 46 1011.8
20260903221457 83 30 0.0 3.0 0.00 0.05 0.05 46 1011.8
20260903221357 83 30 1.0 3.0 0.00 0.05 0.05 46 1011.8
20260903221259 83 30 2.0 2.0 0.00 0.05 0.05 47 1011.8
20260903221157 83 29 0.0 2.0 0.00 0.05 0.05 47 1011.8
20260903221001 83 29 0.0 2.0 0.00 0.05 0.05 48 1011.8
20260903220859 82 29 1.0 1.0 0.00 0.05 0.05 48 1011.9
20260903220759 82 29 0.0 1.0 0.00 0.05 0.05 48 1011.9
20260903220657 82 29 0.0 1.0 0.00 0.05 0.05 48 1011.9
20260903220459 82 29 0.0 2.0 0.00 0.05 0.05 48 1012.0
20260903220402 82 29 0.0 2.0 0.00 0.05 0.05 48 1012.0
20260903220259 82 29 0.0 2.0 0.00 0.05 0.05 48 1012.0
20260903220200 82 29 0.0 2.0 0.00 0.05 0.05 48 1012.0
20260903220059 82 29 0.0 2.0 0.00 0.05 0.05 48 1012.0
20260903215858 83 29 0.0 2.0 0.00 0.05 0.05 47 1012.0
20260903215759 83 29 1.0 2.0 0.00 0.05 0.05 46 1012.0
20260903215659 83 29 0.0 2.0 0.00 0.05 0.05 46 1012.0
20260903215558 83 29 0.0 2.0 0.00 0.05 0.05 44 1012.0
20260903215500 83 29 0.0 2.0 0.00 0.05 0.05 43 1012.0
20260903215359 83 29 0.0 2.0 0.00 0.05 0.05 43 1012.0
20260903215259 83 29 0.0 2.0 0.00 0.05 0.05 43 1012.1
20260903215201 83 29 0.0 2.0 0.00 0.05 0.05 43 1012.1
20260903215001 83 29 0.0 2.0 0.00 0.05 0.05 41 1012.0
20260903214900 83 29 0.0 2.0 0.00 0.05 0.05 40 1012.0
20260903214759 83 29 0.0 2.0 0.00 0.05 0.05 39 1012.1
20260903214659 83 29 0.0 2.0 0.00 0.05 0.05 38 1012.1
20260903214458 83 29 0.0 2.0 0.00 0.05 0.05 37 1012.3
20260903214400 83 29 0.0 2.0 0.00 0.05 0.05 37 1012.3
20260903214300 83 29 0.0 2.0 0.00 0.05 0.05 36 1012.3
20260903214200 83 29 0.0 2.0 0.00 0.05 0.05 35 1012.4
20260903214001 83 29 1.0 1.0 0.00 0.05 0.05 34 1012.5
20260903213900 83 29 0.0 1.0 0.00 0.05 0.05 34 1012.5
20260903213800 82 29 0.0 0.0 0.00 0.05 0.05 35 1012.5
20260903213658 82 29 0.0 0.0 0.00 0.05 0.05 35 1012.6
20260903213559 82 29 0.0 0.0 0.00 0.05 0.05 36 1012.5
20260903213459 82 29 0.0 0.0 0.00 0.05 0.05 36 1012.6
20260903213359 82 29 0.0 0.0 0.00 0.05 0.05 36 1012.7
20260903213200 83 29 0.0 2.0 0.00 0.05 0.05 35 1012.8
20260903213058 82 29 0.0 2.0 0.00 0.05 0.05 36 1012.8
20260903213000 83 29 0.0 2.0 0.00 0.05 0.05 36 1012.8
20260903212859 83 29 0.0 2.0 0.00 0.05 0.05 36 1012.9
20260903212800 83 29 0.0 2.0 0.00 0.05 0.05 36 1012.9
20260903212659 83 29 0.0 2.0 0.00 0.05 0.05 36 1012.9
20260903212600 83 29 0.0 3.0 0.00 0.05 0.05 36 1012.9
20260903212459 83 29 0.0 3.0 0.00 0.05 0.05 37 1012.8
20260903212359 83 29 0.0 3.0 0.00 0.05 0.05 37 1012.9
20260903212301 83 29 0.0 3.0 0.00 0.05 0.05 37 1012.8
20260903212159 83 29 0.0 3.0 0.00 0.05 0.05 38 1012.8
20260903212059 83 29 0.0 3.0 0.00 0.05 0.05 38 1012.8
20260903212002 83 29 1.0 3.0 0.00 0.05 0.05 38 1012.8
20260903211858 83 29 1.0 3.0 0.00 0.05 0.05 38 1012.8
20260903211800 83 29 1.0 3.0 0.00 0.05 0.05 37 1012.8
20260903211700 83 29 0.0 3.0 0.00 0.05 0.05 37 1012.7
20260903211600 83 29 0.0 3.0 0.00 0.05 0.05 38 1012.7
20260903211459 83 29 0.0 3.0 0.00 0.05 0.05 38 1012.7
20260903211300 83 29 0.0 3.0 0.00 0.05 0.05 38 1012.7
20260903211200 83 29 0.0 3.0 0.00 0.05 0.05 38 1012.7
20260903211059 83 29 1.0 2.0 0.00 0.05 0.05 38 1012.8
20260903211001 83 29 0.0 2.0 0.00 0.05 0.05 39 1012.9
20260903210859 83 29 0.0 2.0 0.00 0.05 0.05 39 1012.8
20260903210658 83 29 0.0 2.0 0.00 0.05 0.05 39 1012.8
20260903210600 83 29 2.0 2.0 0.00 0.05 0.05 39 1012.8
20260903210500 83 29 0.0 1.0 0.00 0.05 0.05 39 1012.8
20260903210400 83 29 0.0 1.0 0.00 0.05 0.05 39 1012.8
20260903210259 83 29 0.0 1.0 0.00 0.05 0.05 39 1012.8
20260903210158 83 29 0.0 2.0 0.00 0.05 0.05 40 1012.8
20260903210007 83 29 0.0 2.0 0.00 0.05 0.05 41 1012.8
20260903205859 83 29 0.0 2.0 0.00 0.05 0.05 41 1012.8
20260903205659 83 29 0.0 2.0 0.00 0.05 0.05 41 1013.0
20260903205600 83 29 0.0 2.0 0.00 0.05 0.05 41 1013.0
20260903205401 83 29 0.0 2.0 0.00 0.05 0.05 41 1013.1
20260903205259 83 29 0.0 2.0 0.00 0.05 0.05 41 1013.1
20260903205200 83 29 0.0 2.0 0.00 0.05 0.05 41 1013.1
20260903205059 83 29 0.0 2.0 0.00 0.05 0.05 42 1013.1
20260903205000 83 29 0.0 2.0 0.00 0.05 0.05 42 1013.2
20260903204859 83 29 0.0 2.0 0.00 0.05 0.05 42 1013.2
20260903204800 83 29 0.0 2.0 0.00 0.05 0.05 41 1013.2
20260903204600 83 29 0.0 2.0 0.00 0.05 0.05 41 1013.3
20260903204500 83 29 0.0 2.0 0.00 0.05 0.05 42 1013.3
20260903204400 83 29 0.0 2.0 0.00 0.05 0.05 42 1013.3
20260903204301 83 29 0.0 2.0 0.00 0.05 0.05 42 1013.3
20260903204200 83 30 2.0 3.0 0.00 0.05 0.05 41 1013.2
20260903204058 83 30 2.0 4.0 0.00 0.05 0.05 41 1013.1
20260903204003 83 29 0.0 5.0 0.00 0.05 0.05 42 1013.1
20260903203859 83 29 0.0 6.0 0.00 0.05 0.05 41 1012.9
20260903203659 83 29 0.0 6.0 0.00 0.05 0.05 41 1012.9
20260903203600 83 29 0.0 6.0 0.00 0.05 0.05 41 1012.9
20260903203500 83 29 0.0 6.0 0.00 0.05 0.05 41 1012.9
20260903203400 83 29 1.0 6.0 0.00 0.05 0.05 40 1012.9
20260903203259 83 29 1.0 6.0 0.00 0.05 0.05 40 1012.9
20260903203201 83 29 0.0 6.0 0.00 0.05 0.05 40 1012.8